Wetterdaten: Mittwoch, 17.10.2012
Datum Zeit Temp. Innen Temp. Aussen UV X Diff Temp. Feuchte Inne Feuchte Auss Sonnenschein Luftdruck Regen ab 0,1 Wind Sonnenschein T Regendauer Windben
17.10.2012 00:00 17,6 C 8,8 C 0,0 UV-I 0,0 C 55 % 92 % 0 % 1009,4 hPa 0,0 l/m 2,0 km/h (1 Bft) 0 min 0 min 5,6 km/h (1 Bft)
17.10.2012 00:02 17,6 C 8,9 C 0,0 UV-I 0,0 C 55 % 92 % 0 % 1009,4 hPa 0,0 l/m 2,0 km/h (1 Bft) 0 min 0 min 4,4 km/h (1 Bft)
17.10.2012 00:04 17,6 C 8,9 C 0,0 UV-I 0,0 C 55 % 92 % 0 % 1009,4 hPa 0,0 l/m 2,4 km/h (1 Bft) 0 min 0 min 8,4 km/h (2 Bft)
17.10.2012 00:06 17,6 C 8,8 C 0,0 UV-I 0,0 C 55 % 92 % 0 % 1009,7 hPa 0,0 l/m 2,8 km/h (1 Bft) 0 min 0 min 0,0 km/h (0 Bft)
17.10.2012 00:08 17,6 C 8,7 C 0,0 UV-I 0,0 C 55 % 92 % 0 % 1009,7 hPa 0,0 l/m 2,4 km/h (1 Bft) 0 min 0 min 0,0 km/h (0 Bft)
17.10.2012 00:10 17,6 C 8,7 C 0,0 UV-I 0,0 C 55 % 92 % 0 % 1009,7 hPa 0,0 l/m 2,0 km/h (1 Bft) 0 min 0 min 0,0 km/h (0 Bft)
17.10.2012 00:12 17,6 C 8,7 C 0,0 UV-I 0,0 C 55 % 92 % 0 % 1009,7 hPa 0,0 l/m 2,0 km/h (1 Bft) 0 min 0 min 7,2 km/h (2 Bft)
17.10.2012 00:14 17,6 C 8,7 C 0,0 UV-I 0,0 C 55 % 92 % 0 % 1009,7 hPa 0,0 l/m 1,6 km/h (1 Bft) 0 min 0 min 0,0 km/h (0 Bft)
17.10.2012 00:16 17,6 C 8,7 C 0,0 UV-I 0,0 C 55 % 92 % 0 % 1009,7 hPa 0,0 l/m 1,2 km/h (1 Bft) 0 min 0 min 5,2 km/h (1 Bft)
17.10.2012 00:18 17,6 C 8,7 C 0,0 UV-I 0,0 C 55 % 92 % 0 % 1009,7 hPa 0,0 l/m 1,2 km/h (1 Bft) 0 min 0 min 0,0 km/h (0 Bft)
17.10.2012 00:20 17,6 C 8,7 C 0,0 UV-I 0,0 C 55 % 92 % 0 % 1009,7 hPa 0,0 l/m 1,2 km/h (1 Bft) 0 min 0 min 14,5 km/h (3 Bft)
17.10.2012 00:22 17,6 C 8,5 C 0,0 UV-I 0,0 C 55 % 92 % 0 % 1009,7 hPa 0,0 l/m 0,8 km/h (0 Bft) 0 min 0 min 0,0 km/h (0 Bft)
17.10.2012 00:24 17,6 C 8,5 C 0,0 UV-I 0,0 C 55 % 92 % 0 % 1009,7 hPa 0,0 l/m 0,4 km/h (0 Bft) 0 min 0 min 0,0 km/h (0 Bft)
17.10.2012 00:26 17,6 C 8,5 C 0,0 UV-I 0,0 C 55 % 92 % 0 % 1010,1 hPa 0,0 l/m 0,4 km/h (0 Bft) 0 min 0 min 0,0 km/h (0 Bft)
17.10.2012 00:28 17,6 C 8,4 C 0,0 UV-I 0,0 C 55 % 92 % 0 % 1010,1 hPa 0,0 l/m 0,4 km/h (0 Bft) 0 min 0 min 8,0 km/h (2 Bft)
17.10.2012 00:30 17,6 C 8,4 C 0,0 UV-I 0,0 C 55 % 92 % 0 % 1010,1 hPa 0,0 l/m 0,4 km/h (0 Bft) 0 min 0 min 0,0 km/h (0 Bft)
17.10.2012 00:32 17,6 C 8,5 C 0,0 UV-I 0,0 C 55 % 92 % 0 % 1010,1 hPa 0,0 l/m 0,8 km/h (0 Bft) 0 min 0 min 0,0 km/h (0 Bft)
17.10.2012 00:34 17,6 C 8,5 C 0,0 UV-I 0,0 C 55 % 92 % 0 % 1010,1 hPa 0,0 l/m 0,8 km/h (0 Bft) 0 min 0 min 0,0 km/h (0 Bft)
17.10.2012 00:36 17,6 C 8,4 C 0,0 UV-I 0,0 C 55 % 92 % 0 % 1010,1 hPa 0,0 l/m 0,8 km/h (0 Bft) 0 min 0 min 0,0 km/h (0 Bft)
17.10.2012 00:38 17,6 C 8,4 C 0,0 UV-I 0,0 C 55 % 92 % 0 % 1010,1 hPa 0,0 l/m 0,4 km/h (0 Bft) 0 min 0 min 0,0 km/h (0 Bft)
17.10.2012 00:40 17,5 C 8,3 C 0,0 UV-I 0,0 C 55 % 92 % 0 % 1010,1 hPa 0,0 l/m 0,4 km/h (0 Bft) 0 min 0 min 0,0 km/h (0 Bft)
17.10.2012 00:42 17,5 C 8,3 C 0,0 UV-I 0,0 C 55 % 92 % 0 % 1010,1 hPa 0,0 l/m 0,0 km/h (0 Bft) 0 min 0 min 0,0 km/h (0 Bft)
17.10.2012 00:44 17,6 C 8,3 C 0,0 UV-I 0,0 C 55 % 92 % 0 % 1010,1 hPa 0,0 l/m 0,0 km/h (0 Bft) 0 min 0 min 0,0 km/h (0 Bft)
17.10.2012 00:46 17,5 C 8,3 C 0,0 UV-I 0,0 C 55 % 92 % 0 % 1009,6 hPa 0,0 l/m 0,0 km/h (0 Bft) 0 min 0 min 0,0 km/h (0 Bft)
17.10.2012 00:48 17,5 C 8,3 C 0,0 UV-I 0,0 C 55 % 92 % 0 % 1009,6 hPa 0,0 l/m 0,0 km/h (0 Bft) 0 min 0 min 0,0 km/h (0 Bft)
17.10.2012 00:50 17,6 C 8,3 C 0,0 UV-I 0,0 C 55 % 93 % 0 % 1009,6 hPa 0,0 l/m 0,0 km/h (0 Bft) 0 min 0 min 0,0 km/h (0 Bft)
17.10.2012 00:52 17,5 C 8,1 C 0,0 UV-I 0,0 C 55 % 93 % 0 % 1009,6 hPa 0,0 l/m 0,4 km/h (0 Bft) 0 min 0 min 0,0 km/h (0 Bft)
17.10.2012 00:54 17,5 C 8,1 C 0,0 UV-I 0,0 C 55 % 93 % 0 % 1009,6 hPa 0,0 l/m 0,0 km/h (0 Bft) 0 min 0 min 0,0 km/h (0 Bft)
17.10.2012 00:56 17,5 C 8,1 C 0,0 UV-I 0,0 C 55 % 93 % 0 % 1009,6 hPa 0,0 l/m 0,4 km/h (0 Bft) 0 min 0 min 0,0 km/h (0 Bft)
17.10.2012 00:58 17,5 C 8,1 C 0,0 UV-I 0,0 C 55 % 93 % 0 % 1009,6 hPa 0,0 l/m 0,4 km/h (0 Bft) 0 min 0 min 0,0 km/h (0 Bft)
17.10.2012 01:00 17,5 C 8,1 C 0,0 UV-I 0,0 C 55 % 93 % 0 % 1009,6 hPa 0,0 l/m 0,4 km/h (0 Bft) 0 min 0 min 0,0 km/h (0 Bft)
17.10.2012 01:02 17,5 C 8,0 C 0,0 UV-I 0,0 C 55 % 93 % 0 % 1009,6 hPa 0,0 l/m 0,4 km/h (0 Bft) 0 min 0 min 4,0 km/h (1 Bft)
17.10.2012 01:04 17,5 C 8,0 C 0,0 UV-I 0,0 C 55 % 93 % 0 % 1009,6 hPa 0,0 l/m 0,4 km/h (0 Bft) 0 min 0 min 0,0 km/h (0 Bft)
17.10.2012 01:06 17,5 C 8,0 C 0,0 UV-I 0,0 C 55 % 93 % 0 % 1009,8 hPa 0,0 l/m 0,4 km/h (0 Bft) 0 min 0 min 5,6 km/h (1 Bft)
17.10.2012 01:08 17,5 C 8,0 C 0,0 UV-I 0,0 C 55 % 93 % 0 % 1009,8 hPa 0,0 l/m 0,4 km/h (0 Bft) 0 min 0 min 0,0 km/h (0 Bft)
17.10.2012 01:10 17,5 C 7,9 C 0,0 UV-I 0,0 C 55 % 93 % 0 % 1009,8 hPa 0,0 l/m 0,8 km/h (0 Bft) 0 min 0 min 7,6 km/h (2 Bft)
17.10.2012 01:12 17,5 C 7,9 C 0,0 UV-I 0,0 C 55 % 93 % 0 % 1009,8 hPa 0,0 l/m 0,8 km/h (0 Bft) 0 min 0 min 0,0 km/h (0 Bft)
17.10.2012 01:14 17,5 C 7,9 C 0,0 UV-I 0,0 C 55 % 93 % 0 % 1009,8 hPa 0,0 l/m 0,8 km/h (0 Bft) 0 min 0 min 0,0 km/h (0 Bft)
17.10.2012 01:16 17,5 C 7,9 C 0,0 UV-I 0,0 C 55 % 93 % 0 % 1009,8 hPa 0,0 l/m 0,8 km/h (0 Bft) 0 min 0 min 0,0 km/h (0 Bft)
17.10.2012 01:18 17,5 C 7,9 C 0,0 UV-I 0,0 C 55 % 93 % 0 % 1009,8 hPa 0,0 l/m 0,8 km/h (0 Bft) 0 min 0 min 4,8 km/h (1 Bft)
17.10.2012 01:20 17,5 C 7,9 C 0,0 UV-I 0,0 C 55 % 93 % 0 % 1009,8 hPa 0,0 l/m 0,8 km/h (0 Bft) 0 min 0 min 4,8 km/h (1 Bft)
17.10.2012 01:22 17,5 C 7,9 C 0,0 UV-I 0,0 C 55 % 93 % 0 % 1009,8 hPa 0,0 l/m 0,8 km/h (0 Bft) 0 min 0 min 0,0 km/h (0 Bft)
17.10.2012 01:24 17,4 C 7,8 C 0,0 UV-I 0,0 C 55 % 93 % 0 % 1009,8 hPa 0,0 l/m 0,8 km/h (0 Bft) 0 min 0 min 0,0 km/h (0 Bft)
17.10.2012 01:26 17,4 C 7,9 C 0,0 UV-I 0,0 C 55 % 94 % 0 % 1009,8 hPa 0,0 l/m 0,8 km/h (0 Bft) 0 min 0 min 0,0 km/h (0 Bft)
17.10.2012 01:28 17,5 C 7,9 C 0,0 UV-I 0,0 C 55 % 94 % 0 % 1009,8 hPa 0,0 l/m 0,8 km/h (0 Bft) 0 min 0 min 0,0 km/h (0 Bft)
17.10.2012 01:30 17,4 C 7,9 C 0,0 UV-I 0,0 C 55 % 94 % 0 % 1009,8 hPa 0,0 l/m 1,2 km/h (1 Bft) 0 min 0 min 5,6 km/h (1 Bft)
17.10.2012 01:32 17,5 C 7,9 C 0,0 UV-I 0,0 C 55 % 94 % 0 % 1009,8 hPa 0,0 l/m 0,8 km/h (0 Bft) 0 min 0 min 0,0 km/h (0 Bft)
17.10.2012 01:34 17,4 C 7,9 C 0,0 UV-I 0,0 C 55 % 94 % 0 % 1009,8 hPa 0,0 l/m 0,8 km/h (0 Bft) 0 min 0 min 0,0 km/h (0 Bft)
17.10.2012 01:36 17,4 C 7,9 C 0,0 UV-I 0,0 C 55 % 94 % 0 % 1009,8 hPa 0,0 l/m 0,8 km/h (0 Bft) 0 min 0 min 4,8 km/h (1 Bft)
17.10.2012 01:38 17,4 C 7,9 C 0,0 UV-I 0,0 C 55 % 94 % 0 % 1009,8 hPa 0,0 l/m 0,8 km/h (0 Bft) 0 min 0 min 5,6 km/h (1 Bft)
17.10.2012 01:40 17,4 C 7,9 C 0,0 UV-I 0,0 C 55 % 94 % 0 % 1009,8 hPa 0,0 l/m 1,6 km/h (1 Bft) 0 min 0 min 7,2 km/h (2 Bft)
17.10.2012 01:42 17,4 C 8,0 C 0,0 UV-I 0,0 C 55 % 94 % 0 % 1009,8 hPa 0,0 l/m 1,6 km/h (1 Bft) 0 min 0 min 0,0 km/h (0 Bft)
17.10.2012 01:44 17,4 C 8,0 C 0,0 UV-I 0,0 C 55 % 94 % 0 % 1009,8 hPa 0,0 l/m 1,6 km/h (1 Bft) 0 min 0 min 6,4 km/h (2 Bft)
17.10.2012 01:46 17,4 C 8,0 C 0,0 UV-I 0,0 C 55 % 94 % 0 % 1009,9 hPa 0,0 l/m 1,6 km/h (1 Bft) 0 min 0 min 8,4 km/h (2 Bft)
17.10.2012 01:48 17,4 C 8,0 C 0,0 UV-I 0,0 C 55 % 94 % 0 % 1009,9 hPa 0,0 l/m 2,0 km/h (1 Bft) 0 min 0 min 5,6 km/h (1 Bft)
17.10.2012 01:50 17,4 C 7,9 C 0,0 UV-I 0,0 C 55 % 94 % 0 % 1009,9 hPa 0,0 l/m 2,0 km/h (1 Bft) 0 min 0 min 4,0 km/h (1 Bft)
17.10.2012 01:52 17,4 C 7,9 C 0,0 UV-I 0,0 C 55 % 94 % 0 % 1009,9 hPa 0,0 l/m 1,6 km/h (1 Bft) 0 min 0 min 0,0 km/h (0 Bft)
17.10.2012 01:54 17,4 C 7,9 C 0,0 UV-I 0,0 C 55 % 94 % 0 % 1009,9 hPa 0,0 l/m 2,0 km/h (1 Bft) 0 min 0 min 5,6 km/h (1 Bft)
17.10.2012 01:56 17,4 C 7,9 C 0,0 UV-I 0,0 C 55 % 94 % 0 % 1009,9 hPa 0,0 l/m 1,6 km/h (1 Bft) 0 min 0 min 0,0 km/h (0 Bft)
17.10.2012 01:58 17,4 C 7,9 C 0,0 UV-I 0,0 C 55 % 94 % 0 % 1009,9 hPa 0,0 l/m 1,6 km/h (1 Bft) 0 min 0 min 5,2 km/h (1 Bft)
17.10.2012 02:00 17,4 C 7,9 C 0,0 UV-I 0,0 C 55 % 94 % 0 % 1009,9 hPa 0,0 l/m 1,6 km/h (1 Bft) 0 min 0 min 4,8 km/h (1 Bft)
17.10.2012 02:02 17,4 C 7,9 C 0,0 UV-I 0,0 C 55 % 94 % 0 % 1009,9 hPa 0,0 l/m 1,6 km/h (1 Bft) 0 min 0 min 5,2 km/h (1 Bft)
17.10.2012 02:04 17,4 C 7,9 C 0,0 UV-I 0,0 C 55 % 94 % 0 % 1009,9 hPa 0,0 l/m 2,0 km/h (1 Bft) 0 min 0 min 5,2 km/h (1 Bft)
17.10.2012 02:06 17,4 C 7,9 C 0,0 UV-I 0,0 C 55 % 94 % 0 % 1010,0 hPa 0,0 l/m 2,4 km/h (1 Bft) 0 min 0 min 5,2 km/h (1 Bft)
17.10.2012 02:08 17,4 C 7,8 C 0,0 UV-I 0,0 C 55 % 94 % 0 % 1010,0 hPa 0,0 l/m 2,4 km/h (1 Bft) 0 min 0 min 0,0 km/h (0 Bft)
17.10.2012 02:10 17,4 C 7,8 C 0,0 UV-I 0,0 C 55 % 94 % 0 % 1010,0 hPa 0,0 l/m 2,0 km/h (1 Bft) 0 min 0 min 0,0 km/h (0 Bft)
17.10.2012 02:12 17,4 C 7,8 C 0,0 UV-I 0,0 C 55 % 94 % 0 % 1010,0 hPa 0,0 l/m 1,6 km/h (1 Bft) 0 min 0 min 0,0 km/h (0 Bft)
17.10.2012 02:14 17,4 C 7,9 C 0,0 UV-I 0,0 C 55 % 94 % 0 % 1010,0 hPa 0,0 l/m 1,2 km/h (1 Bft) 0 min 0 min 0,0 km/h (0 Bft)
17.10.2012 02:16 17,4 C 7,8 C 0,0 UV-I 0,0 C 55 % 94 % 0 % 1010,0 hPa 0,0 l/m 0,8 km/h (0 Bft) 0 min 0 min 0,0 km/h (0 Bft)
17.10.2012 02:18 17,4 C 7,8 C 0,0 UV-I 0,0 C 55 % 94 % 0 % 1010,0 hPa 0,0 l/m 0,8 km/h (0 Bft) 0 min 0 min 4,0 km/h (1 Bft)
17.10.2012 02:20 17,4 C 7,9 C 0,0 UV-I 0,0 C 55 % 94 % 0 % 1010,0 hPa 0,0 l/m 1,2 km/h (1 Bft) 0 min 0 min 0,0 km/h (0 Bft)
17.10.2012 02:22 17,2 C 7,9 C 0,0 UV-I 0,0 C 55 % 94 % 0 % 1010,0 hPa 0,0 l/m 1,2 km/h (1 Bft) 0 min 0 min 0,0 km/h (0 Bft)
17.10.2012 02:24 17,4 C 7,9 C 0,0 UV-I 0,0 C 55 % 94 % 0 % 1010,0 hPa 0,0 l/m 1,6 km/h (1 Bft) 0 min 0 min 0,0 km/h (0 Bft)
17.10.2012 02:26 17,4 C 7,7 C 0,0 UV-I 0,0 C 55 % 94 % 0 % 1009,9 hPa 0,0 l/m 1,6 km/h (1 Bft) 0 min 0 min 4,8 km/h (1 Bft)
17.10.2012 02:28 17,4 C 7,7 C 0,0 UV-I 0,0 C 55 % 94 % 0 % 1009,9 hPa 0,0 l/m 2,0 km/h (1 Bft) 0 min 0 min 6,4 km/h (2 Bft)
17.10.2012 02:30 17,4 C 7,7 C 0,0 UV-I 0,0 C 55 % 94 % 0 % 1009,9 hPa 0,0 l/m 2,0 km/h (1 Bft) 0 min 0 min 0,0 km/h (0 Bft)
17.10.2012 02:32 17,4 C 7,6 C 0,0 UV-I 0,0 C 55 % 94 % 0 % 1009,9 hPa 0,0 l/m 2,0 km/h (1 Bft) 0 min 0 min 5,2 km/h (1 Bft)
17.10.2012 02:34 17,2 C 7,6 C 0,0 UV-I 0,0 C 55 % 94 % 0 % 1009,9 hPa 0,0 l/m 2,0 km/h (1 Bft) 0 min 0 min 6,0 km/h (2 Bft)
17.10.2012 02:36 17,4 C 7,6 C 0,0 UV-I 0,0 C 55 % 94 % 0 % 1009,9 hPa 0,0 l/m 2,0 km/h (1 Bft) 0 min 0 min 4,8 km/h (1 Bft)
17.10.2012 02:38 17,2 C 7,6 C 0,0 UV-I 0,0 C 55 % 94 % 0 % 1009,9 hPa 0,0 l/m 2,0 km/h (1 Bft) 0 min 0 min 7,6 km/h (2 Bft)
17.10.2012 02:40 17,2 C 7,7 C 0,0 UV-I 0,0 C 55 % 94 % 0 % 1009,9 hPa 0,0 l/m 1,6 km/h (1 Bft) 0 min 0 min 0,0 km/h (0 Bft)
17.10.2012 02:42 17,2 C 7,7 C 0,0 UV-I 0,0 C 55 % 94 % 0 % 1009,9 hPa 0,0 l/m 1,6 km/h (1 Bft) 0 min 0 min 4,0 km/h (1 Bft)
17.10.2012 02:44 17,2 C 7,7 C 0,0 UV-I 0,0 C 55 % 94 % 0 % 1009,9 hPa 0,0 l/m 1,6 km/h (1 Bft) 0 min 0 min 10,4 km/h (2 Bft)
17.10.2012 02:46 17,2 C 7,7 C 0,0 UV-I 0,0 C 55 % 94 % 0 % 1009,6 hPa 0,0 l/m 1,6 km/h (1 Bft) 0 min 0 min 0,0 km/h (0 Bft)
17.10.2012 02:48 17,2 C 7,6 C 0,0 UV-I 0,0 C 55 % 94 % 0 % 1009,6 hPa 0,0 l/m 1,6 km/h (1 Bft) 0 min 0 min 0,0 km/h (0 Bft)
17.10.2012 02:50 17,2 C 7,6 C 0,0 UV-I 0,0 C 55 % 94 % 0 % 1009,6 hPa 0,0 l/m 1,2 km/h (1 Bft) 0 min 0 min 5,6 km/h (1 Bft)
17.10.2012 02:52 17,2 C 7,6 C 0,0 UV-I 0,0 C 55 % 94 % 0 % 1009,6 hPa 0,0 l/m 1,2 km/h (1 Bft) 0 min 0 min 0,0 km/h (0 Bft)
17.10.2012 02:54 17,2 C 7,5 C 0,0 UV-I 0,0 C 55 % 94 % 0 % 1009,6 hPa 0,0 l/m 1,2 km/h (1 Bft) 0 min 0 min 5,6 km/h (1 Bft)
17.10.2012 02:56 17,2 C 7,5 C 0,0 UV-I 0,0 C 55 % 94 % 0 % 1009,6 hPa 0,0 l/m 1,2 km/h (1 Bft) 0 min 0 min 0,0 km/h (0 Bft)
17.10.2012 02:58 17,2 C 7,5 C 0,0 UV-I 0,0 C 55 % 94 % 0 % 1009,6 hPa 0,0 l/m 1,6 km/h (1 Bft) 0 min 0 min 5,6 km/h (1 Bft)
17.10.2012 03:00 17,3 C 7,5 C 0,0 UV-I 0,0 C 55 % 94 % 0 % 1009,6 hPa 0,0 l/m 1,6 km/h (1 Bft) 0 min 0 min 4,0 km/h (1 Bft)
17.10.2012 03:02 17,2 C 7,5 C 0,0 UV-I 0,0 C 55 % 94 % 0 % 1009,6 hPa 0,0 l/m 1,6 km/h (1 Bft) 0 min 0 min 7,2 km/h (2 Bft)
17.10.2012 03:04 17,3 C 7,5 C 0,0 UV-I 0,0 C 55 % 94 % 0 % 1009,6 hPa 0,0 l/m 1,6 km/h (1 Bft) 0 min 0 min 0,0 km/h (0 Bft)
17.10.2012 03:06 17,3 C 7,5 C 0,0 UV-I 0,0 C 55 % 94 % 0 % 1009,8 hPa 0,0 l/m 0,8 km/h (0 Bft) 0 min 0 min 0,0 km/h (0 Bft)
17.10.2012 03:08 17,3 C 7,5 C 0,0 UV-I 0,0 C 55 % 94 % 0 % 1009,8 hPa 0,0 l/m 0,8 km/h (0 Bft) 0 min 0 min 0,0 km/h (0 Bft)
17.10.2012 03:10 17,3 C 7,5 C 0,0 UV-I 0,0 C 55 % 94 % 0 % 1009,8 hPa 0,0 l/m 0,8 km/h (0 Bft) 0 min 0 min 0,0 km/h (0 Bft)
17.10.2012 03:12 17,3 C 7,4 C 0,0 UV-I 0,0 C 55 % 94 % 0 % 1009,8 hPa 0,0 l/m 0,8 km/h (0 Bft) 0 min 0 min 5,6 km/h (1 Bft)
17.10.2012 03:14 17,3 C 7,4 C 0,0 UV-I 0,0 C 55 % 94 % 0 % 1009,8 hPa 0,0 l/m 0,4 km/h (0 Bft) 0 min 0 min 0,0 km/h (0 Bft)
17.10.2012 03:16 17,3 C 7,4 C 0,0 UV-I 0,0 C 55 % 94 % 0 % 1009,8 hPa 0,0 l/m 0,4 km/h (0 Bft) 0 min 0 min 0,0 km/h (0 Bft)
17.10.2012 03:18 17,3 C 7,3 C 0,0 UV-I 0,0 C 55 % 94 % 0 % 1009,8 hPa 0,0 l/m 1,2 km/h (1 Bft) 0 min 0 min 4,4 km/h (1 Bft)
17.10.2012 03:20 17,2 C 7,3 C 0,0 UV-I 0,0 C 55 % 94 % 0 % 1009,8 hPa 0,0 l/m 1,6 km/h (1 Bft) 0 min 0 min 4,0 km/h (1 Bft)
17.10.2012 03:22 17,2 C 7,3 C 0,0 UV-I 0,0 C 55 % 94 % 0 % 1009,8 hPa 0,0 l/m 1,6 km/h (1 Bft) 0 min 0 min 4,4 km/h (1 Bft)
17.10.2012 03:24 17,2 C 7,3 C 0,0 UV-I 0,0 C 55 % 94 % 0 % 1009,8 hPa 0,0 l/m 1,6 km/h (1 Bft) 0 min 0 min 6,4 km/h (2 Bft)
17.10.2012 03:26 17,2 C 7,3 C 0,0 UV-I 0,0 C 55 % 94 % 0 % 1009,4 hPa 0,0 l/m 2,4 km/h (1 Bft) 0 min 0 min 8,0 km/h (2 Bft)
17.10.2012 03:28 17,2 C 7,3 C 0,0 UV-I 0,0 C 55 % 94 % 0 % 1009,4 hPa 0,0 l/m 3,2 km/h (1 Bft) 0 min 0 min 4,4 km/h (1 Bft)
17.10.2012 03:30 17,2 C 7,3 C 0,0 UV-I 0,0 C 55 % 94 % 0 % 1009,4 hPa 0,0 l/m 2,8 km/h (1 Bft) 0 min 0 min 4,0 km/h (1 Bft)
17.10.2012 03:32 17,2 C 7,2 C 0,0 UV-I 0,0 C 55 % 94 % 0 % 1009,4 hPa 0,0 l/m 2,8 km/h (1 Bft) 0 min 0 min 0,0 km/h (0 Bft)
17.10.2012 03:34 17,2 C 7,2 C 0,0 UV-I 0,0 C 55 % 94 % 0 % 1009,4 hPa 0,0 l/m 2,8 km/h (1 Bft) 0 min 0 min 0,0 km/h (0 Bft)
17.10.2012 03:36 17,2 C 7,3 C 0,0 UV-I 0,0 C 55 % 94 % 0 % 1009,4 hPa 0,0 l/m 2,4 km/h (1 Bft) 0 min 0 min 5,6 km/h (1 Bft)
17.10.2012 03:38 17,2 C 7,3 C 0,0 UV-I 0,0 C 55 % 94 % 0 % 1009,4 hPa 0,0 l/m 2,0 km/h (1 Bft) 0 min 0 min 0,0 km/h (0 Bft)
17.10.2012 03:40 17,2 C 7,3 C 0,0 UV-I 0,0 C 55 % 94 % 0 % 1009,4 hPa 0,0 l/m 2,0 km/h (1 Bft) 0 min 0 min 6,4 km/h (2 Bft)
17.10.2012 03:42 17,2 C 7,2 C 0,0 UV-I 0,0 C 55 % 94 % 0 % 1009,4 hPa 0,0 l/m 2,0 km/h (1 Bft) 0 min 0 min 4,4 km/h (1 Bft)
17.10.2012 03:44 17,2 C 7,2 C 0,0 UV-I 0,0 C 55 % 94 % 0 % 1009,4 hPa 0,0 l/m 2,4 km/h (1 Bft) 0 min 0 min 4,4 km/h (1 Bft)
17.10.2012 03:46 17,2 C 7,2 C 0,0 UV-I 0,0 C 55 % 94 % 0 % 1009,4 hPa 0,0 l/m 2,8 km/h (1 Bft) 0 min 0 min 0,0 km/h (0 Bft)
17.10.2012 03:48 17,2 C 7,1 C 0,0 UV-I 0,0 C 55 % 94 % 0 % 1009,4 hPa 0,0 l/m 3,2 km/h (1 Bft) 0 min 0 min 10,4 km/h (2 Bft)
17.10.2012 03:50 17,2 C 7,2 C 0,0 UV-I 0,0 C 55 % 94 % 0 % 1009,4 hPa 0,0 l/m 4,0 km/h (1 Bft) 0 min 0 min 5,6 km/h (1 Bft)
17.10.2012 03:52 17,2 C 7,1 C 0,0 UV-I 0,0 C 54 % 94 % 0 % 1009,4 hPa 0,0 l/m 4,8 km/h (1 Bft) 0 min 0 min 15,7 km/h (3 Bft)
17.10.2012 03:54 17,2 C 7,1 C 0,0 UV-I 0,0 C 54 % 94 % 0 % 1009,4 hPa 0,0 l/m 5,6 km/h (1 Bft) 0 min 0 min 8,4 km/h (2 Bft)
17.10.2012 03:56 17,2 C 7,0 C 0,0 UV-I 0,0 C 55 % 94 % 0 % 1009,4 hPa 0,0 l/m 5,6 km/h (1 Bft) 0 min 0 min 7,6 km/h (2 Bft)
17.10.2012 03:58 17,2 C 7,0 C 0,0 UV-I 0,0 C 54 % 94 % 0 % 1009,4 hPa 0,0 l/m 5,6 km/h (1 Bft) 0 min 0 min 0,0 km/h (0 Bft)
17.10.2012 04:00 17,2 C 7,0 C 0,0 UV-I 0,0 C 54 % 94 % 0 % 1009,4 hPa 0,0 l/m 4,4 km/h (1 Bft) 0 min 0 min 15,7 km/h (3 Bft)
17.10.2012 04:02 17,2 C 7,1 C 0,0 UV-I 0,0 C 54 % 94 % 0 % 1009,4 hPa 0,0 l/m 4,0 km/h (1 Bft) 0 min 0 min 4,8 km/h (1 Bft)
17.10.2012 04:04 17,2 C 7,0 C 0,0 UV-I 0,0 C 54 % 94 % 0 % 1009,4 hPa 0,0 l/m 3,2 km/h (1 Bft) 0 min 0 min 7,2 km/h (2 Bft)
17.10.2012 04:06 17,2 C 6,9 C 0,0 UV-I 0,0 C 54 % 94 % 0 % 1009,4 hPa 0,0 l/m 3,2 km/h (1 Bft) 0 min 0 min 4,8 km/h (1 Bft)
17.10.2012 04:08 17,2 C 6,8 C 0,0 UV-I 0,0 C 54 % 94 % 0 % 1009,4 hPa 0,0 l/m 3,2 km/h (1 Bft) 0 min 0 min 4,8 km/h (1 Bft)
17.10.2012 04:10 17,2 C 6,8 C 0,0 UV-I 0,0 C 54 % 94 % 0 % 1009,4 hPa 0,0 l/m 3,6 km/h (1 Bft) 0 min 0 min 5,6 km/h (1 Bft)
17.10.2012 04:12 17,2 C 6,8 C 0,0 UV-I 0,0 C 54 % 95 % 0 % 1009,4 hPa 0,0 l/m 4,0 km/h (1 Bft) 0 min 0 min 4,0 km/h (1 Bft)
17.10.2012 04:14 17,2 C 6,8 C 0,0 UV-I 0,0 C 54 % 95 % 0 % 1009,4 hPa 0,0 l/m 4,0 km/h (1 Bft) 0 min 0 min 4,0 km/h (1 Bft)
17.10.2012 04:16 17,2 C 6,8 C 0,0 UV-I 0,0 C 54 % 95 % 0 % 1009,4 hPa 0,0 l/m 4,0 km/h (1 Bft) 0 min 0 min 7,2 km/h (2 Bft)
17.10.2012 04:18 17,2 C 6,8 C 0,0 UV-I 0,0 C 54 % 95 % 0 % 1009,4 hPa 0,0 l/m 4,0 km/h (1 Bft) 0 min 0 min 0,0 km/h (0 Bft)
17.10.2012 04:20 17,2 C 6,7 C 0,0 UV-I 0,0 C 54 % 95 % 0 % 1009,4 hPa 0,0 l/m 4,0 km/h (1 Bft) 0 min 0 min 7,6 km/h (2 Bft)
17.10.2012 04:22 17,2 C 6,7 C 0,0 UV-I 0,0 C 54 % 95 % 0 % 1009,4 hPa 0,0 l/m 4,0 km/h (1 Bft) 0 min 0 min 5,6 km/h (1 Bft)
17.10.2012 04:24 17,2 C 6,7 C 0,0 UV-I 0,0 C 54 % 95 % 0 % 1009,4 hPa 0,0 l/m 4,4 km/h (1 Bft) 0 min 0 min 11,6 km/h (2 Bft)
17.10.2012 04:26 17,2 C 6,7 C 0,0 UV-I 0,0 C 54 % 95 % 0 % 1008,8 hPa 0,0 l/m 4,8 km/h (1 Bft) 0 min 0 min 0,0 km/h (0 Bft)
17.10.2012 04:28 17,2 C 6,7 C 0,0 UV-I 0,0 C 54 % 95 % 0 % 1008,8 hPa 0,0 l/m 4,4 km/h (1 Bft) 0 min 0 min 4,8 km/h (1 Bft)
17.10.2012 04:30 17,2 C 6,7 C 0,0 UV-I 0,0 C 54 % 95 % 0 % 1008,8 hPa 0,0 l/m 4,8 km/h (1 Bft) 0 min 0 min 4,8 km/h (1 Bft)
17.10.2012 04:32 17,2 C 6,6 C 0,0 UV-I 0,0 C 54 % 95 % 0 % 1008,8 hPa 0,0 l/m 5,2 km/h (1 Bft) 0 min 0 min 9,2 km/h (2 Bft)
17.10.2012 04:34 17,1 C 6,7 C 0,0 UV-I 0,0 C 54 % 95 % 0 % 1008,8 hPa 0,0 l/m 5,2 km/h (1 Bft) 0 min 0 min 6,8 km/h (2 Bft)
17.10.2012 04:36 17,2 C 6,7 C 0,0 UV-I 0,0 C 54 % 95 % 0 % 1008,8 hPa 0,0 l/m 4,8 km/h (1 Bft) 0 min 0 min 0,0 km/h (0 Bft)
17.10.2012 04:38 17,1 C 6,7 C 0,0 UV-I 0,0 C 54 % 95 % 0 % 1008,8 hPa 0,0 l/m 5,2 km/h (1 Bft) 0 min 0 min 4,4 km/h (1 Bft)
17.10.2012 04:40 17,1 C 6,7 C 0,0 UV-I 0,0 C 54 % 95 % 0 % 1008,8 hPa 0,0 l/m 4,8 km/h (1 Bft) 0 min 0 min 7,2 km/h (2 Bft)
17.10.2012 04:42 17,1 C 6,6 C 0,0 UV-I 0,0 C 54 % 95 % 0 % 1008,8 hPa 0,0 l/m 4,0 km/h (1 Bft) 0 min 0 min 0,0 km/h (0 Bft)
17.10.2012 04:44 17,1 C 6,5 C 0,0 UV-I 0,0 C 54 % 95 % 0 % 1008,8 hPa 0,0 l/m 3,2 km/h (1 Bft) 0 min 0 min 5,6 km/h (1 Bft)
17.10.2012 04:46 17,1 C 6,5 C 0,0 UV-I 0,0 C 54 % 95 % 0 % 1008,7 hPa 0,0 l/m 3,2 km/h (1 Bft) 0 min 0 min 8,4 km/h (2 Bft)
17.10.2012 04:48 17,1 C 6,5 C 0,0 UV-I 0,0 C 54 % 95 % 0 % 1008,7 hPa 0,0 l/m 2,8 km/h (1 Bft) 0 min 0 min 4,4 km/h (1 Bft)
17.10.2012 04:50 17,1 C 6,5 C 0,0 UV-I 0,0 C 54 % 95 % 0 % 1008,7 hPa 0,0 l/m 3,2 km/h (1 Bft) 0 min 0 min 4,8 km/h (1 Bft)
17.10.2012 04:52 17,1 C 6,4 C 0,0 UV-I 0,0 C 54 % 95 % 0 % 1008,7 hPa 0,0 l/m 3,2 km/h (1 Bft) 0 min 0 min 4,4 km/h (1 Bft)
17.10.2012 04:54 17,1 C 6,4 C 0,0 UV-I 0,0 C 54 % 95 % 0 % 1008,7 hPa 0,0 l/m 4,0 km/h (1 Bft) 0 min 0 min 5,6 km/h (1 Bft)
17.10.2012 04:56 17,1 C 6,4 C 0,0 UV-I 0,0 C 54 % 95 % 0 % 1008,7 hPa 0,0 l/m 4,8 km/h (1 Bft) 0 min 0 min 8,8 km/h (2 Bft)
17.10.2012 04:58 17,1 C 6,5 C 0,0 UV-I 0,0 C 54 % 95 % 0 % 1008,7 hPa 0,0 l/m 4,0 km/h (1 Bft) 0 min 0 min 0,0 km/h (0 Bft)
17.10.2012 05:00 17,1 C 6,4 C 0,0 UV-I 0,0 C 54 % 95 % 0 % 1008,7 hPa 0,0 l/m 4,0 km/h (1 Bft) 0 min 0 min 0,0 km/h (0 Bft)
17.10.2012 05:02 17,1 C 6,4 C 0,0 UV-I 0,0 C 54 % 95 % 0 % 1008,7 hPa 0,0 l/m 3,6 km/h (1 Bft) 0 min 0 min 5,6 km/h (1 Bft)
17.10.2012 05:04 17,1 C 6,4 C 0,0 UV-I 0,0 C 54 % 95 % 0 % 1008,7 hPa 0,0 l/m 3,2 km/h (1 Bft) 0 min 0 min 0,0 km/h (0 Bft)
17.10.2012 05:06 17,1 C 6,3 C 0,0 UV-I 0,0 C 54 % 95 % 0 % 1008,4 hPa 0,0 l/m 2,8 km/h (1 Bft) 0 min 0 min 4,8 km/h (1 Bft)
17.10.2012 05:08 17,1 C 6,3 C 0,0 UV-I 0,0 C 54 % 95 % 0 % 1008,4 hPa 0,0 l/m 2,8 km/h (1 Bft) 0 min 0 min 6,0 km/h (2 Bft)
17.10.2012 05:10 17,1 C 6,3 C 0,0 UV-I 0,0 C 54 % 95 % 0 % 1008,4 hPa 0,0 l/m 2,8 km/h (1 Bft) 0 min 0 min 0,0 km/h (0 Bft)
17.10.2012 05:12 17,1 C 6,3 C 0,0 UV-I 0,0 C 54 % 95 % 0 % 1008,4 hPa 0,0 l/m 2,8 km/h (1 Bft) 0 min 0 min 4,0 km/h (1 Bft)
17.10.2012 05:14 17,1 C 6,3 C 0,0 UV-I 0,0 C 54 % 95 % 0 % 1008,4 hPa 0,0 l/m 2,4 km/h (1 Bft) 0 min 0 min 0,0 km/h (0 Bft)
17.10.2012 05:16 17,1 C 6,3 C 0,0 UV-I 0,0 C 54 % 95 % 0 % 1008,4 hPa 0,0 l/m 2,4 km/h (1 Bft) 0 min 0 min 4,4 km/h (1 Bft)
17.10.2012 05:18 17,1 C 6,3 C 0,0 UV-I 0,0 C 54 % 95 % 0 % 1008,4 hPa 0,0 l/m 2,8 km/h (1 Bft) 0 min 0 min 5,2 km/h (1 Bft)
17.10.2012 05:20 17,1 C 6,2 C 0,0 UV-I 0,0 C 54 % 95 % 0 % 1008,4 hPa 0,0 l/m 2,8 km/h (1 Bft) 0 min 0 min 9,6 km/h (2 Bft)
17.10.2012 05:22 17,1 C 6,2 C 0,0 UV-I 0,0 C 54 % 95 % 0 % 1008,4 hPa 0,0 l/m 3,6 km/h (1 Bft) 0 min 0 min 10,0 km/h (2 Bft)
17.10.2012 05:24 17,1 C 6,2 C 0,0 UV-I 0,0 C 54 % 95 % 0 % 1008,4 hPa 0,0 l/m 3,6 km/h (1 Bft) 0 min 0 min 4,4 km/h (1 Bft)
17.10.2012 05:26 17,1 C 6,3 C 0,0 UV-I 0,0 C 54 % 95 % 0 % 1008,6 hPa 0,0 l/m 4,0 km/h (1 Bft) 0 min 0 min 4,8 km/h (1 Bft)
17.10.2012 05:28 17,1 C 6,2 C 0,0 UV-I 0,0 C 54 % 95 % 0 % 1008,6 hPa 0,0 l/m 3,2 km/h (1 Bft) 0 min 0 min 0,0 km/h (0 Bft)
17.10.2012 05:30 17,1 C 6,2 C 0,0 UV-I 0,0 C 54 % 95 % 0 % 1008,6 hPa 0,0 l/m 2,8 km/h (1 Bft) 0 min 0 min 6,0 km/h (2 Bft)
17.10.2012 05:32 17,1 C 6,2 C 0,0 UV-I 0,0 C 54 % 95 % 0 % 1008,6 hPa 0,0 l/m 2,4 km/h (1 Bft) 0 min 0 min 5,2 km/h (1 Bft)
17.10.2012 05:34 17,0 C 6,3 C 0,0 UV-I 0,0 C 54 % 95 % 0 % 1008,6 hPa 0,0 l/m 2,4 km/h (1 Bft) 0 min 0 min 11,2 km/h (2 Bft)
17.10.2012 05:36 17,1 C 6,3 C 0,0 UV-I 0,0 C 54 % 95 % 0 % 1008,6 hPa 0,0 l/m 2,0 km/h (1 Bft) 0 min 0 min 4,0 km/h (1 Bft)
17.10.2012 05:38 17,0 C 6,3 C 0,0 UV-I 0,0 C 54 % 96 % 0 % 1008,6 hPa 0,0 l/m 2,4 km/h (1 Bft) 0 min 0 min 7,6 km/h (2 Bft)
17.10.2012 05:40 17,0 C 6,3 C 0,0 UV-I 0,0 C 54 % 96 % 0 % 1008,6 hPa 0,0 l/m 2,8 km/h (1 Bft) 0 min 0 min 4,4 km/h (1 Bft)
17.10.2012 05:42 17,0 C 6,3 C 0,0 UV-I 0,0 C 54 % 96 % 0 % 1008,6 hPa 0,0 l/m 3,2 km/h (1 Bft) 0 min 0 min 6,0 km/h (2 Bft)
17.10.2012 05:44 17,0 C 6,3 C 0,0 UV-I 0,0 C 54 % 96 % 0 % 1008,6 hPa 0,0 l/m 3,6 km/h (1 Bft) 0 min 0 min 6,8 km/h (2 Bft)
17.10.2012 05:46 17,0 C 6,4 C 0,0 UV-I 0,0 C 54 % 96 % 0 % 1008,2 hPa 0,0 l/m 3,2 km/h (1 Bft) 0 min 0 min 0,0 km/h (0 Bft)
17.10.2012 05:48 17,0 C 6,3 C 0,0 UV-I 0,0 C 54 % 96 % 0 % 1008,2 hPa 0,0 l/m 3,2 km/h (1 Bft) 0 min 0 min 5,2 km/h (1 Bft)
17.10.2012 05:50 17,0 C 6,4 C 0,0 UV-I 0,0 C 54 % 96 % 0 % 1008,2 hPa 0,0 l/m 2,8 km/h (1 Bft) 0 min 0 min 6,0 km/h (2 Bft)
17.10.2012 05:52 17,0 C 6,4 C 0,0 UV-I 0,0 C 54 % 96 % 0 % 1008,2 hPa 0,0 l/m 2,8 km/h (1 Bft) 0 min 0 min 0,0 km/h (0 Bft)
17.10.2012 05:54 17,0 C 6,4 C 0,0 UV-I 0,0 C 54 % 96 % 0 % 1008,2 hPa 0,0 l/m 2,8 km/h (1 Bft) 0 min 0 min 5,2 km/h (1 Bft)
17.10.2012 05:56 17,0 C 6,4 C 0,0 UV-I 0,0 C 54 % 96 % 0 % 1008,2 hPa 0,0 l/m 3,2 km/h (1 Bft) 0 min 0 min 6,4 km/h (2 Bft)
17.10.2012 05:58 17,0 C 6,5 C 0,0 UV-I 0,0 C 54 % 96 % 0 % 1008,2 hPa 0,0 l/m 4,4 km/h (1 Bft) 0 min 0 min 8,4 km/h (2 Bft)
17.10.2012 06:00 17,0 C 6,5 C 0,0 UV-I 0,0 C 54 % 96 % 0 % 1008,2 hPa 0,0 l/m 4,8 km/h (1 Bft) 0 min 0 min 13,3 km/h (3 Bft)
17.10.2012 06:02 17,0 C 6,4 C 0,0 UV-I 0,0 C 54 % 96 % 0 % 1008,2 hPa 0,0 l/m 5,2 km/h (1 Bft) 0 min 0 min 7,6 km/h (2 Bft)
17.10.2012 06:04 17,0 C 6,4 C 0,0 UV-I 0,0 C 54 % 96 % 0 % 1008,2 hPa 0,0 l/m 5,2 km/h (1 Bft) 0 min 0 min 7,6 km/h (2 Bft)
17.10.2012 06:06 17,0 C 6,5 C 0,0 UV-I 0,0 C 54 % 96 % 0 % 1007,9 hPa 0,0 l/m 6,8 km/h (2 Bft) 0 min 0 min 10,8 km/h (2 Bft)
17.10.2012 06:08 17,0 C 6,5 C 0,0 UV-I 0,0 C 54 % 96 % 0 % 1007,9 hPa 0,0 l/m 7,2 km/h (2 Bft) 0 min 0 min 8,4 km/h (2 Bft)
17.10.2012 06:10 17,0 C 6,7 C 0,0 UV-I 0,0 C 54 % 96 % 0 % 1007,9 hPa 0,0 l/m 7,2 km/h (2 Bft) 0 min 0 min 16,9 km/h (3 Bft)
17.10.2012 06:12 17,0 C 6,7 C 0,0 UV-I 0,0 C 54 % 96 % 0 % 1007,9 hPa 0,0 l/m 7,2 km/h (2 Bft) 0 min 0 min 11,6 km/h (2 Bft)
17.10.2012 06:14 17,0 C 6,6 C 0,0 UV-I 0,0 C 54 % 96 % 0 % 1007,9 hPa 0,0 l/m 7,6 km/h (2 Bft) 0 min 0 min 8,4 km/h (2 Bft)
17.10.2012 06:16 17,0 C 6,7 C 0,0 UV-I 0,0 C 54 % 96 % 0 % 1007,9 hPa 0,0 l/m 7,2 km/h (2 Bft) 0 min 0 min 10,8 km/h (2 Bft)
17.10.2012 06:18 17,0 C 6,7 C 0,0 UV-I 0,0 C 54 % 96 % 0 % 1007,9 hPa 0,0 l/m 6,8 km/h (2 Bft) 0 min 0 min 6,0 km/h (2 Bft)
17.10.2012 06:20 17,0 C 6,8 C 0,0 UV-I 0,0 C 54 % 96 % 0 % 1007,9 hPa 0,0 l/m 6,0 km/h (2 Bft) 0 min 0 min 8,0 km/h (2 Bft)
17.10.2012 06:22 17,0 C 6,8 C 0,0 UV-I 0,0 C 54 % 96 % 0 % 1007,9 hPa 0,0 l/m 6,4 km/h (2 Bft) 0 min 0 min 8,8 km/h (2 Bft)
17.10.2012 06:24 17,0 C 6,8 C 0,0 UV-I 0,0 C 54 % 96 % 0 % 1007,9 hPa 0,0 l/m 6,8 km/h (2 Bft) 0 min 0 min 11,2 km/h (2 Bft)
17.10.2012 06:26 17,0 C 6,9 C 0,0 UV-I 0,0 C 54 % 96 % 0 % 1007,9 hPa 0,0 l/m 7,2 km/h (2 Bft) 0 min 0 min 6,8 km/h (2 Bft)
17.10.2012 06:28 17,0 C 6,9 C 0,0 UV-I 0,0 C 54 % 96 % 0 % 1007,9 hPa 0,0 l/m 6,8 km/h (2 Bft) 0 min 0 min 8,4 km/h (2 Bft)
17.10.2012 06:30 17,0 C 6,9 C 0,0 UV-I 0,0 C 54 % 96 % 0 % 1007,9 hPa 0,0 l/m 6,8 km/h (2 Bft) 0 min 0 min 5,2 km/h (1 Bft)
17.10.2012 06:32 17,0 C 6,9 C 0,0 UV-I 0,0 C 54 % 96 % 0 % 1007,9 hPa 0,0 l/m 6,8 km/h (2 Bft) 0 min 0 min 5,6 km/h (1 Bft)
17.10.2012 06:34 17,0 C 6,9 C 0,0 UV-I 0,0 C 54 % 96 % 0 % 1007,9 hPa 0,0 l/m 6,0 km/h (2 Bft) 0 min 0 min 8,0 km/h (2 Bft)
17.10.2012 06:36 17,0 C 7,0 C 0,0 UV-I 0,0 C 54 % 96 % 0 % 1007,9 hPa 0,0 l/m 4,8 km/h (1 Bft) 0 min 0 min 8,4 km/h (2 Bft)
17.10.2012 06:38 17,0 C 7,0 C 0,0 UV-I 0,0 C 54 % 96 % 0 % 1007,9 hPa 0,0 l/m 5,6 km/h (1 Bft) 0 min 0 min 7,6 km/h (2 Bft)
17.10.2012 06:40 17,0 C 7,1 C 0,0 UV-I 0,0 C 54 % 96 % 0 % 1007,9 hPa 0,0 l/m 6,0 km/h (2 Bft) 0 min 0 min 21,3 km/h (4 Bft)
17.10.2012 06:42 17,0 C 7,1 C 0,0 UV-I 0,0 C 54 % 96 % 0 % 1007,9 hPa 0,0 l/m 6,4 km/h (2 Bft) 0 min 0 min 15,3 km/h (3 Bft)
17.10.2012 06:44 17,0 C 7,1 C 0,0 UV-I 0,0 C 54 % 96 % 0 % 1007,9 hPa 0,0 l/m 6,8 km/h (2 Bft) 0 min 0 min 7,2 km/h (2 Bft)
17.10.2012 06:46 17,0 C 7,0 C 0,0 UV-I 0,0 C 54 % 96 % 0 % 1007,4 hPa 0,0 l/m 7,2 km/h (2 Bft) 0 min 0 min 8,8 km/h (2 Bft)
17.10.2012 06:48 17,0 C 7,1 C 0,0 UV-I 0,0 C 54 % 96 % 0 % 1007,4 hPa 0,0 l/m 6,8 km/h (2 Bft) 0 min 0 min 7,6 km/h (2 Bft)
17.10.2012 06:50 17,0 C 7,1 C 0,0 UV-I 0,0 C 54 % 96 % 0 % 1007,4 hPa 0,0 l/m 6,8 km/h (2 Bft) 0 min 0 min 6,0 km/h (2 Bft)
17.10.2012 06:52 17,0 C 7,1 C 0,0 UV-I 0,0 C 54 % 96 % 0 % 1007,4 hPa 0,0 l/m 8,0 km/h (2 Bft) 0 min 0 min 10,0 km/h (2 Bft)
17.10.2012 06:54 17,0 C 7,2 C 0,0 UV-I 0,0 C 54 % 97 % 0 % 1007,4 hPa 0,0 l/m 7,2 km/h (2 Bft) 0 min 0 min 5,6 km/h (1 Bft)
17.10.2012 06:56 17,0 C 7,2 C 0,0 UV-I 0,0 C 54 % 96 % 0 % 1007,4 hPa 0,0 l/m 6,8 km/h (2 Bft) 0 min 0 min 15,7 km/h (3 Bft)
17.10.2012 06:58 17,0 C 7,2 C 0,0 UV-I 0,0 C 54 % 97 % 0 % 1007,4 hPa 0,0 l/m 6,8 km/h (2 Bft) 0 min 0 min 6,0 km/h (2 Bft)
17.10.2012 07:00 17,0 C 7,2 C 0,0 UV-I 0,0 C 54 % 96 % 0 % 1007,4 hPa 0,0 l/m 6,4 km/h (2 Bft) 0 min 0 min 11,2 km/h (2 Bft)
17.10.2012 07:02 17,0 C 7,2 C 0,0 UV-I 0,0 C 54 % 96 % 0 % 1007,4 hPa 0,0 l/m 5,6 km/h (1 Bft) 0 min 0 min 9,6 km/h (2 Bft)
17.10.2012 07:04 17,0 C 7,2 C 0,0 UV-I 0,0 C 54 % 96 % 0 % 1007,4 hPa 0,0 l/m 6,0 km/h (2 Bft) 0 min 0 min 16,5 km/h (3 Bft)
17.10.2012 07:06 17,0 C 7,3 C 0,0 UV-I 0,0 C 54 % 96 % 0 % 1006,9 hPa 0,0 l/m 8,0 km/h (2 Bft) 0 min 0 min 18,5 km/h (3 Bft)
17.10.2012 07:08 17,0 C 7,2 C 0,0 UV-I 0,0 C 54 % 96 % 0 % 1006,9 hPa 0,0 l/m 7,6 km/h (2 Bft) 0 min 0 min 10,0 km/h (2 Bft)
17.10.2012 07:10 17,0 C 7,2 C 0,0 UV-I 0,0 C 54 % 96 % 0 % 1006,9 hPa 0,0 l/m 8,4 km/h (2 Bft) 0 min 0 min 22,5 km/h (4 Bft)
17.10.2012 07:12 17,0 C 7,3 C 0,0 UV-I 0,0 C 54 % 96 % 0 % 1006,9 hPa 0,0 l/m 9,6 km/h (2 Bft) 0 min 0 min 15,3 km/h (3 Bft)
17.10.2012 07:14 17,0 C 7,3 C 0,0 UV-I 0,0 C 54 % 96 % 0 % 1006,9 hPa 0,0 l/m 9,6 km/h (2 Bft) 0 min 0 min 15,3 km/h (3 Bft)
17.10.2012 07:16 17,0 C 7,3 C 0,0 UV-I 0,0 C 54 % 96 % 0 % 1006,9 hPa 0,0 l/m 8,8 km/h (2 Bft) 0 min 0 min 10,8 km/h (2 Bft)
17.10.2012 07:18 17,0 C 7,3 C 0,0 UV-I 0,0 C 54 % 96 % 0 % 1006,9 hPa 0,0 l/m 8,8 km/h (2 Bft) 0 min 0 min 19,3 km/h (3 Bft)
17.10.2012 07:20 17,0 C 7,4 C 0,0 UV-I 0,0 C 54 % 96 % 0 % 1006,9 hPa 0,0 l/m 8,8 km/h (2 Bft) 0 min 0 min 16,1 km/h (3 Bft)
17.10.2012 07:22 17,0 C 7,5 C 0,0 UV-I 0,0 C 54 % 96 % 0 % 1006,9 hPa 0,0 l/m 8,4 km/h (2 Bft) 0 min 0 min 8,4 km/h (2 Bft)
17.10.2012 07:24 17,0 C 7,5 C 0,0 UV-I 0,0 C 54 % 96 % 0 % 1006,9 hPa 0,0 l/m 8,8 km/h (2 Bft) 0 min 0 min 23,7 km/h (4 Bft)
17.10.2012 07:26 17,0 C 7,4 C 0,0 UV-I 0,0 C 54 % 96 % 0 % 1007,1 hPa 0,0 l/m 9,2 km/h (2 Bft) 0 min 0 min 17,3 km/h (3 Bft)
17.10.2012 07:28 17,0 C 7,4 C 0,0 UV-I 0,0 C 54 % 96 % 0 % 1007,1 hPa 0,0 l/m 9,6 km/h (2 Bft) 0 min 0 min 6,8 km/h (2 Bft)
17.10.2012 07:30 17,0 C 7,5 C 0,0 UV-I 0,0 C 54 % 96 % 0 % 1007,1 hPa 0,0 l/m 10,0 km/h (2 Bft) 0 min 0 min 23,7 km/h (4 Bft)
17.10.2012 07:32 17,0 C 7,5 C 0,0 UV-I 0,0 C 54 % 96 % 0 % 1007,1 hPa 0,0 l/m 9,6 km/h (2 Bft) 0 min 0 min 16,1 km/h (3 Bft)
17.10.2012 07:34 17,0 C 7,5 C 0,0 UV-I 0,0 C 54 % 96 % 0 % 1007,1 hPa 0,0 l/m 10,4 km/h (2 Bft) 0 min 0 min 12,0 km/h (2 Bft)
17.10.2012 07:36 17,0 C 7,5 C 0,0 UV-I 0,0 C 54 % 96 % 0 % 1007,1 hPa 0,0 l/m 10,4 km/h (2 Bft) 0 min 0 min 17,3 km/h (3 Bft)
17.10.2012 07:38 17,0 C 7,5 C 0,0 UV-I 0,0 C 54 % 96 % 0 % 1007,1 hPa 0,0 l/m 10,0 km/h (2 Bft) 0 min 0 min 8,4 km/h (2 Bft)
17.10.2012 07:40 17,0 C 7,6 C 0,0 UV-I 0,0 C 54 % 96 % 0 % 1007,1 hPa 0,0 l/m 10,0 km/h (2 Bft) 0 min 0 min 27,3 km/h (4 Bft)
17.10.2012 07:42 17,0 C 7,6 C 0,0 UV-I 0,0 C 54 % 96 % 0 % 1007,1 hPa 0,0 l/m 10,0 km/h (2 Bft) 0 min 0 min 10,0 km/h (2 Bft)
17.10.2012 07:44 16,9 C 7,6 C 0,0 UV-I 0,0 C 54 % 96 % 0 % 1007,1 hPa 0,0 l/m 10,0 km/h (2 Bft) 0 min 0 min 18,9 km/h (3 Bft)
17.10.2012 07:46 16,9 C 7,7 C 0,0 UV-I 0,0 C 54 % 96 % 0 % 1006,8 hPa 0,0 l/m 9,2 km/h (2 Bft) 0 min 0 min 11,2 km/h (2 Bft)
17.10.2012 07:48 16,9 C 7,7 C 0,0 UV-I 0,0 C 54 % 96 % 0 % 1006,8 hPa 0,0 l/m 9,2 km/h (2 Bft) 0 min 0 min 8,4 km/h (2 Bft)
17.10.2012 07:50 16,9 C 7,6 C 0,0 UV-I 0,0 C 54 % 96 % 0 % 1006,8 hPa 0,0 l/m 10,0 km/h (2 Bft) 0 min 0 min 33,3 km/h (5 Bft)
17.10.2012 07:52 17,0 C 7,6 C 0,0 UV-I 0,0 C 54 % 96 % 0 % 1006,8 hPa 0,0 l/m 9,2 km/h (2 Bft) 0 min 0 min 9,2 km/h (2 Bft)
17.10.2012 07:54 17,0 C 7,6 C 0,0 UV-I 0,0 C 54 % 96 % 0 % 1006,8 hPa 0,0 l/m 10,4 km/h (2 Bft) 0 min 0 min 14,9 km/h (3 Bft)
17.10.2012 07:56 17,0 C 7,6 C 0,0 UV-I 0,0 C 54 % 96 % 0 % 1006,8 hPa 0,0 l/m 10,8 km/h (2 Bft) 0 min 0 min 16,5 km/h (3 Bft)
17.10.2012 07:58 17,0 C 7,6 C 0,0 UV-I 0,0 C 54 % 96 % 0 % 1006,8 hPa 0,0 l/m 11,2 km/h (2 Bft) 0 min 0 min 16,5 km/h (3 Bft)
17.10.2012 08:00 17,0 C 7,6 C 0,0 UV-I 0,0 C 54 % 96 % 0 % 1006,8 hPa 0,0 l/m 10,8 km/h (2 Bft) 0 min 0 min 8,8 km/h (2 Bft)
17.10.2012 08:02 17,0 C 7,6 C 0,0 UV-I 0,0 C 54 % 96 % 0 % 1006,8 hPa 0,0 l/m 11,2 km/h (2 Bft) 0 min 0 min 25,3 km/h (4 Bft)
17.10.2012 08:04 17,0 C 7,7 C 0,0 UV-I 0,0 C 54 % 96 % 0 % 1006,8 hPa 0,0 l/m 10,8 km/h (2 Bft) 0 min 0 min 11,2 km/h (2 Bft)
17.10.2012 08:06 17,0 C 7,7 C 0,0 UV-I 0,0 C 54 % 96 % 0 % 1006,8 hPa 0,0 l/m 10,8 km/h (2 Bft) 0 min 2 min 8,4 km/h (2 Bft)
17.10.2012 08:08 17,0 C 7,7 C 0,0 UV-I 0,0 C 54 % 96 % 0 % 1006,8 hPa 0,0 l/m 10,0 km/h (2 Bft) 0 min 2 min 18,1 km/h (3 Bft)
17.10.2012 08:10 17,0 C 7,7 C 0,0 UV-I 0,0 C 54 % 96 % 0 % 1006,8 hPa 0,0 l/m 10,4 km/h (2 Bft) 0 min 2 min 22,1 km/h (4 Bft)
17.10.2012 08:12 17,0 C 7,8 C 0,0 UV-I 0,0 C 54 % 96 % 0 % 1006,8 hPa 0,0 l/m 11,2 km/h (2 Bft) 0 min 2 min 12,4 km/h (3 Bft)
17.10.2012 08:14 16,9 C 7,9 C 0,0 UV-I 0,0 C 54 % 96 % 0 % 1006,8 hPa 0,0 l/m 10,8 km/h (2 Bft) 0 min 2 min 19,7 km/h (3 Bft)
17.10.2012 08:16 17,0 C 7,8 C 0,0 UV-I 0,0 C 54 % 96 % 0 % 1006,8 hPa 0,0 l/m 11,6 km/h (2 Bft) 0 min 0 min 20,1 km/h (4 Bft)
17.10.2012 08:18 17,0 C 7,9 C 0,0 UV-I 0,0 C 54 % 96 % 0 % 1006,8 hPa 0,0 l/m 11,2 km/h (2 Bft) 0 min 0 min 7,2 km/h (2 Bft)
17.10.2012 08:20 17,0 C 7,9 C 0,0 UV-I 0,0 C 54 % 96 % 0 % 1006,8 hPa 0,0 l/m 10,0 km/h (2 Bft) 0 min 2 min 13,3 km/h (3 Bft)
17.10.2012 08:22 17,0 C 8,0 C 0,0 UV-I 0,0 C 54 % 96 % 0 % 1006,8 hPa 0,0 l/m 10,0 km/h (2 Bft) 0 min 2 min 15,3 km/h (3 Bft)
17.10.2012 08:24 17,0 C 8,0 C 0,0 UV-I 0,0 C 54 % 96 % 0 % 1006,8 hPa 0,0 l/m 10,0 km/h (2 Bft) 0 min 0 min 26,1 km/h (4 Bft)
17.10.2012 08:26 16,9 C 8,1 C 0,0 UV-I 0,0 C 54 % 96 % 0 % 1006,7 hPa 0,0 l/m 10,8 km/h (2 Bft) 0 min 2 min 18,5 km/h (3 Bft)
17.10.2012 08:28 17,0 C 8,0 C 0,0 UV-I 0,0 C 54 % 96 % 0 % 1006,7 hPa 0,0 l/m 11,2 km/h (2 Bft) 0 min 2 min 20,5 km/h (4 Bft)
17.10.2012 08:30 17,0 C 8,0 C 0,0 UV-I 0,0 C 54 % 96 % 0 % 1006,7 hPa 0,0 l/m 12,8 km/h (3 Bft) 0 min 0 min 23,3 km/h (4 Bft)
17.10.2012 08:32 17,0 C 8,1 C 0,0 UV-I 0,0 C 54 % 96 % 0 % 1006,7 hPa 0,0 l/m 13,3 km/h (3 Bft) 0 min 0 min 18,1 km/h (3 Bft)
17.10.2012 08:34 17,0 C 8,1 C 0,0 UV-I 0,0 C 54 % 96 % 0 % 1006,7 hPa 0,0 l/m 13,7 km/h (3 Bft) 0 min 0 min 20,9 km/h (4 Bft)
17.10.2012 08:36 17,0 C 8,1 C 0,0 UV-I 0,0 C 54 % 96 % 0 % 1006,7 hPa 0,0 l/m 14,1 km/h (3 Bft) 0 min 0 min 22,9 km/h (4 Bft)
17.10.2012 08:38 17,0 C 8,2 C 0,0 UV-I 0,0 C 55 % 96 % 0 % 1006,7 hPa 0,0 l/m 12,4 km/h (3 Bft) 0 min 0 min 12,8 km/h (3 Bft)
17.10.2012 08:40 17,0 C 8,1 C 0,0 UV-I 0,0 C 54 % 96 % 0 % 1006,7 hPa 0,0 l/m 11,6 km/h (2 Bft) 0 min 0 min 8,0 km/h (2 Bft)
17.10.2012 08:42 17,0 C 8,1 C 0,0 UV-I 0,0 C 55 % 96 % 0 % 1006,7 hPa 0,0 l/m 11,2 km/h (2 Bft) 0 min 0 min 13,3 km/h (3 Bft)
17.10.2012 08:44 17,0 C 8,2 C 0,0 UV-I 0,0 C 55 % 96 % 0 % 1006,7 hPa 0,0 l/m 10,4 km/h (2 Bft) 0 min 0 min 10,4 km/h (2 Bft)
17.10.2012 08:46 17,0 C 8,3 C 0,0 UV-I 0,0 C 55 % 96 % 0 % 1006,5 hPa 0,0 l/m 10,0 km/h (2 Bft) 0 min 2 min 18,1 km/h (3 Bft)
17.10.2012 08:48 17,0 C 8,3 C 0,0 UV-I 0,0 C 55 % 96 % 0 % 1006,5 hPa 0,0 l/m 9,6 km/h (2 Bft) 0 min 2 min 13,7 km/h (3 Bft)
17.10.2012 08:50 17,0 C 8,3 C 0,0 UV-I 0,0 C 55 % 96 % 0 % 1006,5 hPa 0,1 l/m 9,2 km/h (2 Bft) 0 min 2 min 10,0 km/h (2 Bft)
17.10.2012 08:52 17,0 C 8,3 C 0,0 UV-I 0,0 C 55 % 96 % 0 % 1006,5 hPa 0,0 l/m 9,6 km/h (2 Bft) 0 min 2 min 10,4 km/h (2 Bft)
17.10.2012 08:54 17,0 C 8,3 C 0,0 UV-I 0,0 C 55 % 96 % 0 % 1006,5 hPa 0,0 l/m 10,0 km/h (2 Bft) 0 min 2 min 14,1 km/h (3 Bft)
17.10.2012 08:56 17,0 C 8,3 C 0,0 UV-I 0,0 C 55 % 96 % 0 % 1006,5 hPa 0,0 l/m 9,6 km/h (2 Bft) 0 min 2 min 8,8 km/h (2 Bft)
17.10.2012 08:58 17,0 C 8,2 C 0,0 UV-I 0,0 C 55 % 96 % 0 % 1006,5 hPa 0,0 l/m 10,4 km/h (2 Bft) 0 min 2 min 15,3 km/h (3 Bft)
17.10.2012 09:00 17,0 C 8,2 C 0,0 UV-I 0,0 C 55 % 96 % 0 % 1006,5 hPa 0,0 l/m 10,8 km/h (2 Bft) 0 min 2 min 12,4 km/h (3 Bft)
17.10.2012 09:02 17,0 C 8,2 C 0,0 UV-I 0,0 C 55 % 96 % 0 % 1006,5 hPa 0,0 l/m 11,6 km/h (2 Bft) 0 min 2 min 15,3 km/h (3 Bft)
17.10.2012 09:04 17,0 C 8,2 C 0,0 UV-I 0,0 C 55 % 96 % 0 % 1006,5 hPa 0,1 l/m 12,0 km/h (2 Bft) 0 min 2 min 16,5 km/h (3 Bft)
17.10.2012 09:06 17,0 C 8,3 C 0,0 UV-I 0,0 C 55 % 96 % 0 % 1006,3 hPa 0,0 l/m 12,0 km/h (2 Bft) 0 min 2 min 9,2 km/h (2 Bft)
17.10.2012 09:08 17,0 C 8,3 C 0,0 UV-I 0,0 C 55 % 96 % 0 % 1006,3 hPa 0,1 l/m 12,0 km/h (2 Bft) 0 min 2 min 15,7 km/h (3 Bft)
17.10.2012 09:10 17,0 C 8,3 C 0,0 UV-I 0,0 C 55 % 96 % 0 % 1006,3 hPa 0,0 l/m 11,2 km/h (2 Bft) 0 min 2 min 12,4 km/h (3 Bft)
17.10.2012 09:12 17,0 C 8,3 C 0,0 UV-I 0,0 C 55 % 96 % 0 % 1006,3 hPa 0,0 l/m 11,6 km/h (2 Bft) 0 min 2 min 7,2 km/h (2 Bft)
17.10.2012 09:14 17,0 C 8,3 C 0,0 UV-I 0,0 C 55 % 96 % 0 % 1006,3 hPa 0,0 l/m 11,2 km/h (2 Bft) 0 min 2 min 22,5 km/h (4 Bft)
17.10.2012 09:16 17,0 C 8,3 C 0,0 UV-I 0,0 C 55 % 96 % 0 % 1006,3 hPa 0,0 l/m 10,8 km/h (2 Bft) 0 min 2 min 20,1 km/h (4 Bft)
17.10.2012 09:18 17,0 C 8,3 C 0,0 UV-I 0,0 C 55 % 96 % 0 % 1006,3 hPa 0,0 l/m 10,8 km/h (2 Bft) 0 min 2 min 16,1 km/h (3 Bft)
17.10.2012 09:20 17,0 C 8,3 C 0,0 UV-I 0,0 C 55 % 96 % 0 % 1006,3 hPa 0,1 l/m 10,4 km/h (2 Bft) 0 min 2 min 14,1 km/h (3 Bft)
17.10.2012 09:22 17,0 C 8,4 C 0,0 UV-I 0,0 C 55 % 96 % 0 % 1006,3 hPa 0,0 l/m 9,2 km/h (2 Bft) 0 min 2 min 11,6 km/h (2 Bft)
17.10.2012 09:24 17,0 C 8,3 C 0,0 UV-I 0,0 C 55 % 96 % 0 % 1006,3 hPa 0,0 l/m 9,2 km/h (2 Bft) 0 min 2 min 23,3 km/h (4 Bft)
17.10.2012 09:26 17,0 C 8,3 C 0,0 UV-I 0,0 C 55 % 96 % 0 % 1006,3 hPa 0,0 l/m 9,2 km/h (2 Bft) 0 min 2 min 10,8 km/h (2 Bft)
17.10.2012 09:28 17,0 C 8,3 C 0,0 UV-I 0,0 C 55 % 96 % 0 % 1006,3 hPa 0,0 l/m 8,8 km/h (2 Bft) 0 min 2 min 14,5 km/h (3 Bft)
17.10.2012 09:30 17,0 C 8,4 C 0,0 UV-I 0,0 C 55 % 96 % 0 % 1006,3 hPa 0,0 l/m 9,6 km/h (2 Bft) 0 min 2 min 12,8 km/h (3 Bft)
17.10.2012 09:32 17,0 C 8,4 C 0,0 UV-I 0,0 C 55 % 96 % 0 % 1006,3 hPa 0,1 l/m 10,0 km/h (2 Bft) 0 min 2 min 8,4 km/h (2 Bft)
17.10.2012 09:34 17,0 C 8,4 C 0,0 UV-I 0,0 C 55 % 96 % 0 % 1006,3 hPa 0,0 l/m 10,4 km/h (2 Bft) 0 min 2 min 16,1 km/h (3 Bft)
17.10.2012 09:36 17,0 C 8,4 C 0,0 UV-I 0,0 C 55 % 96 % 0 % 1006,3 hPa 0,0 l/m 10,8 km/h (2 Bft) 0 min 0 min 12,8 km/h (3 Bft)
17.10.2012 09:38 17,0 C 8,4 C 0,0 UV-I 0,0 C 55 % 96 % 0 % 1006,3 hPa 0,0 l/m 10,8 km/h (2 Bft) 0 min 0 min 8,8 km/h (2 Bft)
17.10.2012 09:40 17,0 C 8,5 C 0,0 UV-I 0,0 C 55 % 97 % 0 % 1006,3 hPa 0,0 l/m 10,8 km/h (2 Bft) 0 min 0 min 10,4 km/h (2 Bft)
17.10.2012 09:42 17,0 C 8,4 C 0,0 UV-I 0,0 C 55 % 96 % 0 % 1006,3 hPa 0,0 l/m 10,0 km/h (2 Bft) 0 min 0 min 14,5 km/h (3 Bft)
17.10.2012 09:44 17,0 C 8,4 C 0,0 UV-I 0,0 C 55 % 96 % 0 % 1006,3 hPa 0,0 l/m 10,0 km/h (2 Bft) 0 min 0 min 6,4 km/h (2 Bft)
17.10.2012 09:46 17,0 C 8,4 C 0,0 UV-I 0,0 C 55 % 96 % 0 % 1006,1 hPa 0,0 l/m 9,2 km/h (2 Bft) 0 min 0 min 15,7 km/h (3 Bft)
17.10.2012 09:48 17,0 C 8,6 C 0,0 UV-I 0,0 C 55 % 97 % 0 % 1006,1 hPa 0,0 l/m 9,2 km/h (2 Bft) 0 min 2 min 15,3 km/h (3 Bft)
17.10.2012 09:50 17,0 C 8,5 C 0,0 UV-I 0,0 C 55 % 97 % 0 % 1006,1 hPa 0,0 l/m 9,6 km/h (2 Bft) 0 min 2 min 16,1 km/h (3 Bft)
17.10.2012 09:52 17,0 C 8,6 C 0,0 UV-I 0,0 C 55 % 97 % 0 % 1006,1 hPa 0,0 l/m 10,0 km/h (2 Bft) 0 min 2 min 17,3 km/h (3 Bft)
17.10.2012 09:54 17,0 C 8,7 C 0,0 UV-I 0,0 C 55 % 97 % 0 % 1006,1 hPa 0,0 l/m 10,8 km/h (2 Bft) 0 min 2 min 15,7 km/h (3 Bft)
17.10.2012 09:56 17,0 C 8,7 C 0,0 UV-I 0,0 C 55 % 97 % 0 % 1006,1 hPa 0,1 l/m 11,2 km/h (2 Bft) 0 min 2 min 16,9 km/h (3 Bft)
17.10.2012 09:58 17,0 C 8,7 C 0,0 UV-I 0,0 C 56 % 97 % 0 % 1006,1 hPa 0,0 l/m 10,8 km/h (2 Bft) 0 min 2 min 10,4 km/h (2 Bft)
17.10.2012 10:00 17,0 C 8,6 C 0,0 UV-I 0,0 C 56 % 97 % 0 % 1006,1 hPa 0,0 l/m 10,0 km/h (2 Bft) 0 min 2 min 7,2 km/h (2 Bft)
17.10.2012 10:02 17,1 C 8,7 C 0,0 UV-I 0,0 C 56 % 97 % 0 % 1006,1 hPa 0,0 l/m 10,0 km/h (2 Bft) 0 min 2 min 14,1 km/h (3 Bft)
17.10.2012 10:04 17,0 C 8,8 C 0,0 UV-I 0,0 C 56 % 97 % 0 % 1006,1 hPa 0,0 l/m 8,8 km/h (2 Bft) 0 min 2 min 13,7 km/h (3 Bft)
17.10.2012 10:06 17,0 C 8,8 C 0,0 UV-I 0,0 C 56 % 97 % 0 % 1006,6 hPa 0,0 l/m 8,8 km/h (2 Bft) 0 min 2 min 16,5 km/h (3 Bft)
17.10.2012 10:08 17,1 C 8,8 C 0,0 UV-I 0,0 C 56 % 97 % 0 % 1006,6 hPa 0,0 l/m 8,8 km/h (2 Bft) 0 min 0 min 16,5 km/h (3 Bft)
17.10.2012 10:10 17,1 C 8,8 C 0,0 UV-I 0,0 C 56 % 97 % 0 % 1006,6 hPa 0,0 l/m 11,2 km/h (2 Bft) 0 min 0 min 27,3 km/h (4 Bft)
17.10.2012 10:12 17,1 C 8,8 C 0,0 UV-I 0,0 C 56 % 97 % 0 % 1006,6 hPa 0,1 l/m 12,0 km/h (2 Bft) 0 min 0 min 18,5 km/h (3 Bft)
17.10.2012 10:14 17,1 C 8,9 C 0,0 UV-I 0,0 C 56 % 97 % 0 % 1006,6 hPa 0,0 l/m 13,3 km/h (3 Bft) 0 min 2 min 18,9 km/h (3 Bft)
17.10.2012 10:16 17,1 C 8,9 C 0,0 UV-I 0,0 C 56 % 97 % 0 % 1006,6 hPa 0,0 l/m 14,5 km/h (3 Bft) 0 min 0 min 22,1 km/h (4 Bft)
17.10.2012 10:18 17,1 C 9,0 C 0,0 UV-I 0,0 C 56 % 97 % 0 % 1006,6 hPa 0,0 l/m 14,9 km/h (3 Bft) 0 min 0 min 13,3 km/h (3 Bft)
17.10.2012 10:20 17,1 C 9,1 C 0,0 UV-I 0,0 C 56 % 97 % 0 % 1006,6 hPa 0,0 l/m 14,1 km/h (3 Bft) 0 min 2 min 8,8 km/h (2 Bft)
17.10.2012 10:22 17,1 C 9,1 C 0,0 UV-I 0,0 C 56 % 97 % 0 % 1006,6 hPa 0,0 l/m 12,4 km/h (3 Bft) 0 min 2 min 11,6 km/h (2 Bft)
17.10.2012 10:24 17,1 C 9,1 C 0,0 UV-I 0,0 C 56 % 97 % 0 % 1006,6 hPa 0,0 l/m 12,4 km/h (3 Bft) 0 min 2 min 11,2 km/h (2 Bft)
17.10.2012 10:26 17,1 C 9,0 C 0,0 UV-I 0,0 C 56 % 97 % 0 % 1006,4 hPa 0,1 l/m 11,2 km/h (2 Bft) 0 min 2 min 18,1 km/h (3 Bft)
17.10.2012 10:28 17,1 C 9,1 C 0,0 UV-I 0,0 C 56 % 97 % 0 % 1006,4 hPa 0,0 l/m 10,8 km/h (2 Bft) 0 min 2 min 10,4 km/h (2 Bft)
17.10.2012 10:30 17,1 C 9,1 C 0,0 UV-I 0,0 C 56 % 97 % 0 % 1006,4 hPa 0,2 l/m 11,2 km/h (2 Bft) 0 min 2 min 32,5 km/h (5 Bft)
17.10.2012 10:32 17,1 C 9,1 C 0,0 UV-I 0,0 C 56 % 97 % 0 % 1006,4 hPa 0,0 l/m 11,6 km/h (2 Bft) 0 min 0 min 13,7 km/h (3 Bft)
17.10.2012 10:34 17,1 C 9,1 C 0,0 UV-I 0,0 C 56 % 97 % 0 % 1006,4 hPa 0,2 l/m 11,6 km/h (2 Bft) 0 min 0 min 12,0 km/h (2 Bft)
17.10.2012 10:36 17,1 C 9,1 C 0,0 UV-I 0,0 C 56 % 97 % 0 % 1006,4 hPa 0,1 l/m 12,0 km/h (2 Bft) 0 min 0 min 10,8 km/h (2 Bft)
17.10.2012 10:38 17,1 C 9,1 C 0,0 UV-I 0,0 C 56 % 97 % 0 % 1006,4 hPa 0,0 l/m 11,6 km/h (2 Bft) 0 min 0 min 13,3 km/h (3 Bft)
17.10.2012 10:40 17,1 C 9,2 C 0,0 UV-I 0,0 C 56 % 97 % 0 % 1006,4 hPa 0,1 l/m 11,2 km/h (2 Bft) 0 min 0 min 19,7 km/h (3 Bft)
17.10.2012 10:42 17,1 C 9,2 C 0,0 UV-I 0,0 C 56 % 97 % 0 % 1006,4 hPa 0,0 l/m 10,8 km/h (2 Bft) 0 min 0 min 16,1 km/h (3 Bft)
17.10.2012 10:44 17,1 C 9,3 C 0,0 UV-I 0,0 C 56 % 97 % 0 % 1006,4 hPa 0,0 l/m 10,4 km/h (2 Bft) 0 min 0 min 13,7 km/h (3 Bft)
17.10.2012 10:46 17,1 C 9,2 C 0,0 UV-I 0,0 C 56 % 97 % 0 % 1006,1 hPa 0,0 l/m 10,4 km/h (2 Bft) 0 min 0 min 21,7 km/h (4 Bft)
17.10.2012 10:48 17,1 C 9,2 C 0,0 UV-I 0,0 C 56 % 97 % 0 % 1006,1 hPa 0,0 l/m 10,0 km/h (2 Bft) 0 min 0 min 10,8 km/h (2 Bft)
17.10.2012 10:50 17,1 C 9,3 C 0,0 UV-I 0,0 C 56 % 97 % 0 % 1006,1 hPa 0,0 l/m 10,0 km/h (2 Bft) 0 min 0 min 7,2 km/h (2 Bft)
17.10.2012 10:52 17,1 C 9,3 C 0,0 UV-I 0,0 C 56 % 97 % 0 % 1006,1 hPa 0,0 l/m 9,6 km/h (2 Bft) 0 min 0 min 14,9 km/h (3 Bft)
17.10.2012 10:54 17,1 C 9,3 C 0,0 UV-I 0,0 C 56 % 97 % 0 % 1006,1 hPa 0,0 l/m 10,4 km/h (2 Bft) 0 min 0 min 19,7 km/h (3 Bft)
17.10.2012 10:56 17,1 C 9,3 C 0,0 UV-I 0,0 C 57 % 97 % 0 % 1006,1 hPa 0,0 l/m 11,2 km/h (2 Bft) 0 min 0 min 10,0 km/h (2 Bft)
17.10.2012 10:58 17,2 C 9,5 C 0,0 UV-I 0,0 C 57 % 97 % 0 % 1006,1 hPa 0,0 l/m 11,6 km/h (2 Bft) 0 min 0 min 17,7 km/h (3 Bft)
17.10.2012 11:00 17,2 C 9,5 C 0,0 UV-I 0,0 C 57 % 97 % 0 % 1006,1 hPa 0,0 l/m 12,4 km/h (3 Bft) 0 min 0 min 14,5 km/h (3 Bft)
17.10.2012 11:02 17,2 C 9,4 C 0,0 UV-I 0,0 C 57 % 97 % 0 % 1006,1 hPa 0,0 l/m 13,3 km/h (3 Bft) 0 min 0 min 12,8 km/h (3 Bft)
17.10.2012 11:04 17,2 C 9,5 C 0,0 UV-I 0,0 C 57 % 97 % 0 % 1006,1 hPa 0,0 l/m 13,7 km/h (3 Bft) 0 min 0 min 18,5 km/h (3 Bft)
17.10.2012 11:06 17,2 C 9,6 C 0,0 UV-I 0,0 C 57 % 97 % 0 % 1005,9 hPa 0,0 l/m 13,3 km/h (3 Bft) 0 min 0 min 27,3 km/h (4 Bft)
17.10.2012 11:08 17,2 C 9,5 C 0,0 UV-I 0,0 C 57 % 97 % 0 % 1005,9 hPa 0,0 l/m 12,8 km/h (3 Bft) 0 min 0 min 20,1 km/h (4 Bft)
17.10.2012 11:10 17,2 C 9,7 C 0,0 UV-I 0,0 C 57 % 98 % 0 % 1005,9 hPa 0,0 l/m 12,8 km/h (3 Bft) 0 min 0 min 13,7 km/h (3 Bft)
17.10.2012 11:12 17,2 C 9,7 C 0,0 UV-I 0,0 C 57 % 98 % 0 % 1005,9 hPa 0,0 l/m 13,3 km/h (3 Bft) 0 min 0 min 11,6 km/h (2 Bft)
17.10.2012 11:14 17,2 C 9,6 C 0,0 UV-I 0,0 C 57 % 97 % 0 % 1005,9 hPa 0,0 l/m 12,8 km/h (3 Bft) 0 min 0 min 12,0 km/h (2 Bft)
17.10.2012 11:16 17,2 C 9,7 C 0,0 UV-I 0,0 C 57 % 98 % 0 % 1005,9 hPa 0,0 l/m 12,8 km/h (3 Bft) 0 min 0 min 18,9 km/h (3 Bft)
17.10.2012 11:18 17,2 C 9,7 C 0,0 UV-I 0,0 C 57 % 97 % 0 % 1005,9 hPa 0,0 l/m 12,4 km/h (3 Bft) 0 min 0 min 10,4 km/h (2 Bft)
17.10.2012 11:20 17,2 C 9,7 C 0,0 UV-I 0,0 C 57 % 97 % 0 % 1005,9 hPa 0,0 l/m 12,4 km/h (3 Bft) 0 min 0 min 17,7 km/h (3 Bft)
17.10.2012 11:22 17,2 C 9,9 C 0,0 UV-I 0,0 C 57 % 97 % 0 % 1005,9 hPa 0,0 l/m 13,7 km/h (3 Bft) 0 min 0 min 33,7 km/h (5 Bft)
17.10.2012 11:24 17,2 C 9,8 C 0,0 UV-I 0,0 C 57 % 97 % 0 % 1005,9 hPa 0,0 l/m 13,7 km/h (3 Bft) 0 min 0 min 20,5 km/h (4 Bft)
17.10.2012 11:26 17,2 C 9,9 C 0,0 UV-I 0,0 C 57 % 97 % 0 % 1006,1 hPa 0,0 l/m 14,9 km/h (3 Bft) 0 min 0 min 16,9 km/h (3 Bft)
17.10.2012 11:28 17,2 C 9,8 C 0,0 UV-I 0,0 C 57 % 97 % 0 % 1006,1 hPa 0,0 l/m 13,3 km/h (3 Bft) 0 min 0 min 10,4 km/h (2 Bft)
17.10.2012 11:30 17,2 C 9,9 C 0,0 UV-I 0,0 C 57 % 97 % 0 % 1006,1 hPa 0,0 l/m 13,7 km/h (3 Bft) 0 min 0 min 33,7 km/h (5 Bft)
17.10.2012 11:32 17,2 C 9,9 C 0,0 UV-I 0,0 C 57 % 97 % 0 % 1006,1 hPa 0,0 l/m 13,3 km/h (3 Bft) 0 min 0 min 17,7 km/h (3 Bft)
17.10.2012 11:34 17,2 C 10,0 C 0,0 UV-I 0,0 C 57 % 97 % 0 % 1006,1 hPa 0,0 l/m 12,0 km/h (2 Bft) 0 min 0 min 13,7 km/h (3 Bft)
17.10.2012 11:36 17,2 C 10,0 C 0,0 UV-I 0,0 C 57 % 97 % 0 % 1006,1 hPa 0,0 l/m 11,2 km/h (2 Bft) 0 min 0 min 11,2 km/h (2 Bft)
17.10.2012 11:38 17,2 C 10,1 C 0,0 UV-I 0,0 C 57 % 97 % 0 % 1006,1 hPa 0,0 l/m 11,6 km/h (2 Bft) 0 min 0 min 24,5 km/h (4 Bft)
17.10.2012 11:40 17,2 C 10,0 C 0,0 UV-I 0,0 C 57 % 97 % 0 % 1006,1 hPa 0,0 l/m 12,4 km/h (3 Bft) 0 min 0 min 23,3 km/h (4 Bft)
17.10.2012 11:42 17,2 C 10,0 C 0,0 UV-I 0,0 C 57 % 97 % 0 % 1006,1 hPa 0,0 l/m 12,4 km/h (3 Bft) 0 min 0 min 15,3 km/h (3 Bft)
17.10.2012 11:44 17,2 C 10,1 C 0,0 UV-I 0,0 C 57 % 97 % 0 % 1006,1 hPa 0,0 l/m 12,4 km/h (3 Bft) 0 min 0 min 10,0 km/h (2 Bft)
17.10.2012 11:46 17,2 C 10,1 C 0,0 UV-I 0,0 C 57 % 97 % 0 % 1006,2 hPa 0,0 l/m 12,0 km/h (2 Bft) 0 min 0 min 15,3 km/h (3 Bft)
17.10.2012 11:48 17,3 C 10,2 C 0,0 UV-I 0,0 C 57 % 97 % 0 % 1006,2 hPa 0,0 l/m 12,4 km/h (3 Bft) 0 min 0 min 13,7 km/h (3 Bft)
17.10.2012 11:50 17,3 C 10,3 C 0,0 UV-I 0,0 C 57 % 97 % 0 % 1006,2 hPa 0,0 l/m 12,4 km/h (3 Bft) 0 min 0 min 9,6 km/h (2 Bft)
17.10.2012 11:52 17,3 C 10,3 C 0,0 UV-I 0,0 C 57 % 97 % 0 % 1006,2 hPa 0,0 l/m 11,6 km/h (2 Bft) 0 min 0 min 7,2 km/h (2 Bft)
17.10.2012 11:54 17,3 C 10,3 C 0,0 UV-I 0,0 C 57 % 97 % 0 % 1006,2 hPa 0,0 l/m 11,2 km/h (2 Bft) 0 min 0 min 12,0 km/h (2 Bft)
17.10.2012 11:56 17,2 C 10,3 C 0,0 UV-I 0,0 C 57 % 97 % 0 % 1006,2 hPa 0,0 l/m 11,6 km/h (2 Bft) 0 min 0 min 16,1 km/h (3 Bft)
17.10.2012 11:58 17,3 C 10,3 C 0,0 UV-I 0,0 C 57 % 97 % 0 % 1006,2 hPa 0,0 l/m 10,8 km/h (2 Bft) 0 min 0 min 10,8 km/h (2 Bft)
17.10.2012 12:00 17,3 C 10,3 C 0,0 UV-I 0,0 C 57 % 97 % 0 % 1006,2 hPa 0,0 l/m 10,0 km/h (2 Bft) 0 min 0 min 12,0 km/h (2 Bft)
17.10.2012 12:02 17,3 C 10,4 C 0,0 UV-I 0,0 C 57 % 97 % 0 % 1006,2 hPa 0,0 l/m 10,4 km/h (2 Bft) 0 min 0 min 15,7 km/h (3 Bft)
17.10.2012 12:04 17,2 C 10,4 C 0,0 UV-I 0,0 C 57 % 97 % 0 % 1006,2 hPa 0,0 l/m 10,4 km/h (2 Bft) 0 min 0 min 15,7 km/h (3 Bft)
17.10.2012 12:06 17,2 C 10,4 C 0,0 UV-I 0,0 C 57 % 97 % 0 % 1005,8 hPa 0,0 l/m 9,6 km/h (2 Bft) 0 min 0 min 10,0 km/h (2 Bft)
17.10.2012 12:08 17,2 C 10,4 C 0,0 UV-I 0,0 C 57 % 96 % 0 % 1005,8 hPa 0,0 l/m 9,6 km/h (2 Bft) 0 min 0 min 9,6 km/h (2 Bft)
17.10.2012 12:10 17,2 C 10,5 C 0,0 UV-I 0,0 C 57 % 97 % 0 % 1005,8 hPa 0,0 l/m 10,0 km/h (2 Bft) 0 min 0 min 12,8 km/h (3 Bft)
17.10.2012 12:12 17,2 C 10,4 C 0,0 UV-I 0,0 C 57 % 96 % 0 % 1005,8 hPa 0,0 l/m 10,0 km/h (2 Bft) 0 min 0 min 8,4 km/h (2 Bft)
17.10.2012 12:14 17,2 C 10,5 C 0,0 UV-I 0,0 C 57 % 97 % 0 % 1005,8 hPa 0,0 l/m 9,2 km/h (2 Bft) 0 min 0 min 5,6 km/h (1 Bft)
17.10.2012 12:16 17,2 C 10,7 C 0,0 UV-I 0,0 C 57 % 97 % 0 % 1005,8 hPa 0,0 l/m 9,2 km/h (2 Bft) 0 min 0 min 14,5 km/h (3 Bft)
17.10.2012 12:18 17,2 C 10,7 C 0,0 UV-I 0,0 C 57 % 97 % 0 % 1005,8 hPa 0,0 l/m 9,6 km/h (2 Bft) 0 min 0 min 7,2 km/h (2 Bft)
17.10.2012 12:20 17,4 C 10,7 C 0,0 UV-I 0,0 C 57 % 96 % 0 % 1005,8 hPa 0,0 l/m 9,6 km/h (2 Bft) 0 min 0 min 8,4 km/h (2 Bft)
17.10.2012 12:22 17,4 C 10,9 C 0,0 UV-I 0,0 C 57 % 96 % 0 % 1005,8 hPa 0,0 l/m 10,0 km/h (2 Bft) 0 min 0 min 18,5 km/h (3 Bft)
17.10.2012 12:24 17,4 C 10,8 C 0,0 UV-I 0,2 C 57 % 96 % 6 % 1005,8 hPa 0,0 l/m 10,8 km/h (2 Bft) 0 min 0 min 15,3 km/h (3 Bft)
17.10.2012 12:26 17,4 C 10,9 C 0,0 UV-I 0,0 C 57 % 96 % 0 % 1005,7 hPa 0,0 l/m 11,6 km/h (2 Bft) 0 min 0 min 10,8 km/h (2 Bft)
17.10.2012 12:28 17,4 C 10,9 C 0,0 UV-I 0,2 C 57 % 96 % 6 % 1005,7 hPa 0,0 l/m 12,0 km/h (2 Bft) 0 min 0 min 16,9 km/h (3 Bft)
17.10.2012 12:30 17,4 C 11,1 C 0,0 UV-I 0,0 C 57 % 97 % 0 % 1005,7 hPa 0,0 l/m 12,0 km/h (2 Bft) 0 min 0 min 37,3 km/h (5 Bft)
17.10.2012 12:32 17,4 C 11,0 C 0,0 UV-I 0,2 C 58 % 96 % 6 % 1005,7 hPa 0,0 l/m 13,7 km/h (3 Bft) 0 min 0 min 25,3 km/h (4 Bft)
17.10.2012 12:34 17,4 C 11,1 C 0,1 UV-I 0,3 C 58 % 96 % 9 % 1005,7 hPa 0,0 l/m 13,7 km/h (3 Bft) 0 min 0 min 9,6 km/h (2 Bft)
17.10.2012 12:36 17,4 C 11,2 C 0,1 UV-I 0,5 C 58 % 96 % 14 % 1005,7 hPa 0,0 l/m 12,8 km/h (3 Bft) 0 min 0 min 10,4 km/h (2 Bft)
17.10.2012 12:38 17,4 C 11,2 C 0,1 UV-I 0,9 C 58 % 96 % 26 % 1005,7 hPa 0,0 l/m 12,4 km/h (3 Bft) 0 min 0 min 6,8 km/h (2 Bft)
17.10.2012 12:40 17,4 C 11,3 C 0,2 UV-I 1,0 C 58 % 96 % 29 % 1005,7 hPa 0,0 l/m 12,8 km/h (3 Bft) 0 min 0 min 20,9 km/h (4 Bft)
17.10.2012 12:42 17,4 C 11,5 C 0,2 UV-I 1,0 C 58 % 96 % 29 % 1005,7 hPa 0,0 l/m 12,0 km/h (2 Bft) 0 min 0 min 12,0 km/h (2 Bft)
17.10.2012 12:44 17,4 C 11,5 C 0,2 UV-I 1,0 C 58 % 96 % 29 % 1005,7 hPa 0,0 l/m 12,4 km/h (3 Bft) 0 min 0 min 14,5 km/h (3 Bft)
17.10.2012 12:46 17,4 C 11,5 C 0,2 UV-I 1,1 C 58 % 96 % 31 % 1005,7 hPa 0,0 l/m 12,0 km/h (2 Bft) 0 min 0 min 11,6 km/h (2 Bft)
17.10.2012 12:48 17,4 C 11,6 C 0,2 UV-I 1,1 C 58 % 96 % 31 % 1005,7 hPa 0,0 l/m 12,4 km/h (3 Bft) 0 min 0 min 14,5 km/h (3 Bft)
17.10.2012 12:50 17,5 C 11,7 C 0,0 UV-I 1,0 C 58 % 95 % 29 % 1005,7 hPa 0,0 l/m 12,8 km/h (3 Bft) 0 min 0 min 8,0 km/h (2 Bft)
17.10.2012 12:52 17,5 C 11,6 C 0,0 UV-I 1,2 C 58 % 95 % 34 % 1005,7 hPa 0,0 l/m 12,0 km/h (2 Bft) 0 min 0 min 14,9 km/h (3 Bft)
17.10.2012 12:54 17,5 C 11,6 C 0,0 UV-I 1,3 C 58 % 95 % 37 % 1005,7 hPa 0,0 l/m 11,2 km/h (2 Bft) 0 min 0 min 16,1 km/h (3 Bft)
17.10.2012 12:56 17,5 C 11,7 C 0,0 UV-I 1,3 C 58 % 95 % 37 % 1005,7 hPa 0,0 l/m 10,8 km/h (2 Bft) 0 min 0 min 20,1 km/h (4 Bft)
17.10.2012 12:58 17,5 C 11,8 C 0,0 UV-I 1,3 C 58 % 95 % 37 % 1005,7 hPa 0,0 l/m 11,6 km/h (2 Bft) 0 min 0 min 25,3 km/h (4 Bft)
17.10.2012 13:00 17,5 C 11,8 C 0,0 UV-I 1,4 C 58 % 95 % 40 % 1005,7 hPa 0,0 l/m 10,8 km/h (2 Bft) 0 min 0 min 14,9 km/h (3 Bft)
17.10.2012 13:02 17,5 C 12,0 C 0,0 UV-I 1,3 C 58 % 95 % 37 % 1005,7 hPa 0,0 l/m 10,4 km/h (2 Bft) 0 min 0 min 6,8 km/h (2 Bft)
17.10.2012 13:04 17,5 C 12,0 C 0,2 UV-I 1,4 C 58 % 95 % 40 % 1005,7 hPa 0,0 l/m 10,4 km/h (2 Bft) 0 min 0 min 11,6 km/h (2 Bft)
17.10.2012 13:06 17,6 C 12,0 C 0,2 UV-I 1,5 C 58 % 95 % 43 % 1005,9 hPa 0,0 l/m 10,4 km/h (2 Bft) 0 min 0 min 12,0 km/h (2 Bft)
17.10.2012 13:08 17,6 C 12,1 C 0,2 UV-I 1,4 C 58 % 95 % 40 % 1005,9 hPa 0,0 l/m 9,2 km/h (2 Bft) 0 min 0 min 11,2 km/h (2 Bft)
17.10.2012 13:10 17,6 C 12,1 C 0,1 UV-I 1,5 C 58 % 95 % 43 % 1005,9 hPa 0,0 l/m 9,2 km/h (2 Bft) 0 min 0 min 7,6 km/h (2 Bft)
17.10.2012 13:12 17,6 C 12,2 C 0,1 UV-I 1,4 C 58 % 95 % 40 % 1005,9 hPa 0,0 l/m 9,2 km/h (2 Bft) 0 min 0 min 10,4 km/h (2 Bft)
17.10.2012 13:14 17,6 C 12,3 C 0,0 UV-I 1,3 C 58 % 95 % 37 % 1005,9 hPa 0,0 l/m 9,2 km/h (2 Bft) 0 min 0 min 10,8 km/h (2 Bft)
17.10.2012 13:16 17,6 C 12,2 C 0,0 UV-I 1,4 C 58 % 95 % 40 % 1005,9 hPa 0,0 l/m 8,0 km/h (2 Bft) 0 min 0 min 6,0 km/h (2 Bft)
17.10.2012 13:18 17,6 C 12,3 C 0,0 UV-I 1,4 C 58 % 95 % 40 % 1005,9 hPa 0,0 l/m 7,6 km/h (2 Bft) 0 min 0 min 11,6 km/h (2 Bft)
17.10.2012 13:20 17,6 C 12,4 C 0,0 UV-I 1,4 C 58 % 95 % 40 % 1005,9 hPa 0,0 l/m 7,2 km/h (2 Bft) 0 min 0 min 15,7 km/h (3 Bft)
17.10.2012 13:22 17,6 C 12,4 C 0,0 UV-I 1,4 C 58 % 95 % 40 % 1005,9 hPa 0,0 l/m 7,2 km/h (2 Bft) 0 min 0 min 6,4 km/h (2 Bft)
17.10.2012 13:24 17,6 C 12,4 C 0,0 UV-I 1,4 C 58 % 95 % 40 % 1005,9 hPa 0,0 l/m 7,2 km/h (2 Bft) 0 min 0 min 11,2 km/h (2 Bft)
17.10.2012 13:26 17,7 C 12,5 C 0,0 UV-I 1,4 C 58 % 95 % 40 % 1006,1 hPa 0,0 l/m 6,4 km/h (2 Bft) 0 min 0 min 0,0 km/h (0 Bft)
17.10.2012 13:28 17,7 C 12,7 C 0,0 UV-I 1,3 C 58 % 95 % 37 % 1006,1 hPa 0,0 l/m 7,2 km/h (2 Bft) 0 min 0 min 13,7 km/h (3 Bft)
17.10.2012 13:30 17,7 C 12,7 C 0,0 UV-I 1,3 C 58 % 95 % 37 % 1006,1 hPa 0,0 l/m 7,6 km/h (2 Bft) 0 min 0 min 16,5 km/h (3 Bft)
17.10.2012 13:32 17,7 C 12,7 C 0,0 UV-I 1,4 C 58 % 95 % 40 % 1006,1 hPa 0,0 l/m 6,8 km/h (2 Bft) 0 min 0 min 11,2 km/h (2 Bft)
17.10.2012 13:34 17,7 C 12,8 C 0,0 UV-I 1,4 C 58 % 95 % 40 % 1006,1 hPa 0,0 l/m 6,0 km/h (2 Bft) 0 min 0 min 6,8 km/h (2 Bft)
17.10.2012 13:36 17,7 C 12,8 C 0,0 UV-I 1,4 C 58 % 94 % 40 % 1006,1 hPa 0,0 l/m 5,6 km/h (1 Bft) 0 min 0 min 5,6 km/h (1 Bft)
17.10.2012 13:38 17,7 C 12,9 C 0,0 UV-I 1,4 C 58 % 94 % 40 % 1006,1 hPa 0,0 l/m 6,4 km/h (2 Bft) 0 min 0 min 10,8 km/h (2 Bft)
17.10.2012 13:40 17,7 C 13,1 C 0,0 UV-I 1,2 C 58 % 94 % 34 % 1006,1 hPa 0,0 l/m 6,0 km/h (2 Bft) 0 min 0 min 6,0 km/h (2 Bft)
17.10.2012 13:42 17,7 C 13,1 C 0,0 UV-I 1,3 C 58 % 94 % 37 % 1006,1 hPa 0,0 l/m 6,0 km/h (2 Bft) 0 min 0 min 9,2 km/h (2 Bft)
17.10.2012 13:44 17,7 C 13,1 C 0,0 UV-I 1,3 C 58 % 94 % 37 % 1006,1 hPa 0,0 l/m 6,4 km/h (2 Bft) 0 min 0 min 10,0 km/h (2 Bft)
17.10.2012 13:46 17,8 C 13,1 C 0,0 UV-I 1,3 C 58 % 94 % 37 % 1005,9 hPa 0,0 l/m 7,2 km/h (2 Bft) 0 min 0 min 9,6 km/h (2 Bft)
17.10.2012 13:48 17,7 C 13,1 C 0,0 UV-I 1,3 C 58 % 93 % 37 % 1005,9 hPa 0,0 l/m 7,6 km/h (2 Bft) 0 min 0 min 12,8 km/h (3 Bft)
17.10.2012 13:50 17,8 C 13,2 C 0,0 UV-I 1,1 C 58 % 93 % 31 % 1005,9 hPa 0,0 l/m 7,2 km/h (2 Bft) 0 min 0 min 6,0 km/h (2 Bft)
17.10.2012 13:52 17,8 C 13,1 C 0,0 UV-I 1,3 C 58 % 94 % 37 % 1005,9 hPa 0,0 l/m 6,4 km/h (2 Bft) 0 min 0 min 6,4 km/h (2 Bft)
17.10.2012 13:54 17,8 C 13,3 C 0,0 UV-I 1,1 C 58 % 93 % 31 % 1005,9 hPa 0,0 l/m 6,0 km/h (2 Bft) 0 min 0 min 0,0 km/h (0 Bft)
17.10.2012 13:56 17,8 C 13,3 C 0,0 UV-I 1,2 C 58 % 93 % 34 % 1005,9 hPa 0,0 l/m 6,4 km/h (2 Bft) 0 min 0 min 9,2 km/h (2 Bft)
17.10.2012 13:58 17,8 C 13,3 C 0,0 UV-I 1,2 C 58 % 93 % 34 % 1005,9 hPa 0,0 l/m 6,4 km/h (2 Bft) 0 min 0 min 7,2 km/h (2 Bft)
17.10.2012 14:00 17,8 C 13,5 C 0,0 UV-I 1,1 C 58 % 94 % 31 % 1005,9 hPa 0,0 l/m 6,4 km/h (2 Bft) 0 min 0 min 12,8 km/h (3 Bft)
17.10.2012 14:02 17,8 C 13,5 C 0,0 UV-I 1,2 C 58 % 94 % 34 % 1005,9 hPa 0,0 l/m 6,8 km/h (2 Bft) 0 min 0 min 15,3 km/h (3 Bft)
17.10.2012 14:04 17,8 C 13,6 C 0,0 UV-I 1,1 C 58 % 93 % 31 % 1005,9 hPa 0,0 l/m 7,6 km/h (2 Bft) 0 min 0 min 6,0 km/h (2 Bft)
17.10.2012 14:06 17,8 C 13,6 C 0,0 UV-I 1,1 C 58 % 93 % 31 % 1005,8 hPa 0,0 l/m 8,0 km/h (2 Bft) 0 min 0 min 13,3 km/h (3 Bft)
17.10.2012 14:08 17,8 C 13,7 C 0,0 UV-I 1,0 C 58 % 93 % 29 % 1005,8 hPa 0,0 l/m 6,8 km/h (2 Bft) 0 min 0 min 0,0 km/h (0 Bft)
17.10.2012 14:10 17,8 C 13,7 C 0,0 UV-I 1,0 C 58 % 93 % 29 % 1005,8 hPa 0,0 l/m 6,4 km/h (2 Bft) 0 min 0 min 7,6 km/h (2 Bft)
17.10.2012 14:12 17,8 C 13,9 C 0,0 UV-I 0,8 C 58 % 92 % 23 % 1005,8 hPa 0,0 l/m 6,0 km/h (2 Bft) 0 min 0 min 6,4 km/h (2 Bft)
17.10.2012 14:14 17,8 C 13,9 C 0,0 UV-I 0,8 C 58 % 92 % 23 % 1005,8 hPa 0,0 l/m 5,6 km/h (1 Bft) 0 min 0 min 8,8 km/h (2 Bft)
17.10.2012 14:16 17,8 C 13,9 C 0,0 UV-I 0,9 C 58 % 92 % 26 % 1005,8 hPa 0,0 l/m 5,6 km/h (1 Bft) 0 min 0 min 14,5 km/h (3 Bft)
17.10.2012 14:18 17,8 C 13,9 C 0,0 UV-I 0,9 C 58 % 92 % 26 % 1005,8 hPa 0,0 l/m 6,0 km/h (2 Bft) 0 min 0 min 10,0 km/h (2 Bft)
17.10.2012 14:20 17,8 C 14,0 C 0,0 UV-I 0,8 C 58 % 92 % 23 % 1005,8 hPa 0,0 l/m 6,4 km/h (2 Bft) 0 min 0 min 7,6 km/h (2 Bft)
17.10.2012 14:22 17,9 C 14,1 C 0,0 UV-I 0,8 C 58 % 92 % 23 % 1005,8 hPa 0,0 l/m 7,2 km/h (2 Bft) 0 min 0 min 10,8 km/h (2 Bft)
17.10.2012 14:24 17,9 C 14,0 C 0,0 UV-I 0,9 C 58 % 91 % 26 % 1005,8 hPa 0,0 l/m 8,4 km/h (2 Bft) 0 min 0 min 12,4 km/h (3 Bft)
17.10.2012 14:26 17,9 C 14,1 C 0,0 UV-I 0,8 C 58 % 91 % 23 % 1006,1 hPa 0,0 l/m 8,8 km/h (2 Bft) 0 min 0 min 16,1 km/h (3 Bft)
17.10.2012 14:28 17,9 C 14,1 C 0,0 UV-I 0,8 C 58 % 91 % 23 % 1006,1 hPa 0,0 l/m 8,8 km/h (2 Bft) 0 min 0 min 8,4 km/h (2 Bft)
17.10.2012 14:30 17,9 C 14,1 C 0,0 UV-I 0,7 C 58 % 91 % 20 % 1006,1 hPa 0,0 l/m 8,4 km/h (2 Bft) 0 min 0 min 4,8 km/h (1 Bft)
17.10.2012 14:32 17,9 C 14,3 C 0,0 UV-I 0,5 C 58 % 91 % 14 % 1006,1 hPa 0,0 l/m 8,0 km/h (2 Bft) 0 min 0 min 7,6 km/h (2 Bft)
17.10.2012 14:34 17,9 C 14,3 C 0,0 UV-I 0,5 C 58 % 91 % 14 % 1006,1 hPa 0,0 l/m 7,2 km/h (2 Bft) 0 min 0 min 6,8 km/h (2 Bft)
17.10.2012 14:36 17,9 C 14,3 C 0,0 UV-I 0,6 C 58 % 91 % 17 % 1006,1 hPa 0,0 l/m 6,0 km/h (2 Bft) 0 min 0 min 6,0 km/h (2 Bft)
17.10.2012 14:38 17,9 C 14,3 C 0,0 UV-I 0,6 C 58 % 90 % 17 % 1006,1 hPa 0,0 l/m 6,0 km/h (2 Bft) 0 min 0 min 15,3 km/h (3 Bft)
17.10.2012 14:40 17,9 C 14,3 C 0,0 UV-I 0,6 C 58 % 90 % 17 % 1006,1 hPa 0,0 l/m 6,0 km/h (2 Bft) 0 min 0 min 8,4 km/h (2 Bft)
17.10.2012 14:42 17,9 C 14,3 C 0,0 UV-I 0,6 C 58 % 90 % 17 % 1006,1 hPa 0,0 l/m 6,0 km/h (2 Bft) 0 min 0 min 10,8 km/h (2 Bft)
17.10.2012 14:44 17,9 C 14,3 C 0,0 UV-I 0,6 C 58 % 90 % 17 % 1006,1 hPa 0,0 l/m 6,8 km/h (2 Bft) 0 min 0 min 14,1 km/h (3 Bft)
17.10.2012 14:46 17,9 C 14,3 C 0,0 UV-I 0,6 C 58 % 90 % 17 % 1006,2 hPa 0,0 l/m 6,8 km/h (2 Bft) 0 min 0 min 7,6 km/h (2 Bft)
17.10.2012 14:48 17,9 C 14,4 C 0,0 UV-I 0,5 C 58 % 90 % 14 % 1006,2 hPa 0,0 l/m 6,4 km/h (2 Bft) 0 min 0 min 12,0 km/h (2 Bft)
17.10.2012 14:50 17,9 C 14,3 C 0,0 UV-I 0,6 C 58 % 90 % 17 % 1006,2 hPa 0,0 l/m 6,4 km/h (2 Bft) 0 min 0 min 12,4 km/h (3 Bft)
17.10.2012 14:52 17,9 C 14,4 C 0,0 UV-I 0,5 C 58 % 90 % 14 % 1006,2 hPa 0,0 l/m 6,4 km/h (2 Bft) 0 min 0 min 0,0 km/h (0 Bft)
17.10.2012 14:54 17,9 C 14,5 C 0,0 UV-I 0,4 C 58 % 90 % 11 % 1006,2 hPa 0,0 l/m 5,6 km/h (1 Bft) 0 min 0 min 10,8 km/h (2 Bft)
17.10.2012 14:56 17,9 C 14,4 C 0,0 UV-I 0,5 C 58 % 90 % 14 % 1006,2 hPa 0,0 l/m 5,6 km/h (1 Bft) 0 min 0 min 6,0 km/h (2 Bft)
17.10.2012 14:58 17,9 C 14,4 C 0,0 UV-I 0,5 C 58 % 90 % 14 % 1006,2 hPa 0,0 l/m 5,6 km/h (1 Bft) 0 min 0 min 8,0 km/h (2 Bft)
17.10.2012 15:00 17,9 C 14,4 C 0,0 UV-I 0,5 C 58 % 89 % 14 % 1006,2 hPa 0,0 l/m 5,2 km/h (1 Bft) 0 min 0 min 5,6 km/h (1 Bft)
17.10.2012 15:02 17,9 C 14,4 C 0,0 UV-I 0,5 C 58 % 89 % 14 % 1006,2 hPa 0,0 l/m 5,6 km/h (1 Bft) 0 min 0 min 8,4 km/h (2 Bft)
17.10.2012 15:04 17,9 C 14,4 C 0,0 UV-I 0,5 C 58 % 89 % 14 % 1006,2 hPa 0,0 l/m 6,4 km/h (2 Bft) 0 min 0 min 8,4 km/h (2 Bft)
17.10.2012 15:06 17,9 C 14,5 C 0,0 UV-I 0,4 C 58 % 89 % 11 % 1006,3 hPa 0,0 l/m 6,0 km/h (2 Bft) 0 min 0 min 10,4 km/h (2 Bft)
17.10.2012 15:08 18,0 C 14,5 C 0,0 UV-I 0,4 C 58 % 89 % 11 % 1006,3 hPa 0,0 l/m 6,8 km/h (2 Bft) 0 min 0 min 12,8 km/h (3 Bft)
17.10.2012 15:10 17,9 C 14,4 C 0,0 UV-I 0,5 C 58 % 89 % 14 % 1006,3 hPa 0,0 l/m 6,4 km/h (2 Bft) 0 min 0 min 5,6 km/h (1 Bft)
17.10.2012 15:12 17,9 C 14,5 C 0,0 UV-I 0,4 C 58 % 89 % 11 % 1006,3 hPa 0,0 l/m 6,0 km/h (2 Bft) 0 min 0 min 9,2 km/h (2 Bft)
17.10.2012 15:14 17,9 C 14,5 C 0,0 UV-I 0,4 C 58 % 89 % 11 % 1006,3 hPa 0,0 l/m 6,0 km/h (2 Bft) 0 min 0 min 12,0 km/h (2 Bft)
17.10.2012 15:16 18,0 C 14,4 C 0,0 UV-I 0,5 C 58 % 89 % 14 % 1006,3 hPa 0,0 l/m 5,6 km/h (1 Bft) 0 min 0 min 8,8 km/h (2 Bft)
17.10.2012 15:18 18,0 C 14,5 C 0,0 UV-I 0,4 C 58 % 89 % 11 % 1006,3 hPa 0,0 l/m 4,4 km/h (1 Bft) 0 min 0 min 4,8 km/h (1 Bft)
17.10.2012 15:20 18,0 C 14,5 C 0,0 UV-I 0,4 C 58 % 89 % 11 % 1006,3 hPa 0,0 l/m 3,6 km/h (1 Bft) 0 min 0 min 4,4 km/h (1 Bft)
17.10.2012 15:22 18,0 C 14,5 C 0,0 UV-I 0,4 C 58 % 89 % 11 % 1006,3 hPa 0,0 l/m 3,6 km/h (1 Bft) 0 min 0 min 0,0 km/h (0 Bft)
17.10.2012 15:24 18,0 C 14,5 C 0,0 UV-I 0,4 C 58 % 89 % 11 % 1006,3 hPa 0,0 l/m 2,8 km/h (1 Bft) 0 min 0 min 6,8 km/h (2 Bft)
17.10.2012 15:26 18,0 C 14,5 C 0,0 UV-I 0,4 C 58 % 88 % 11 % 1006,2 hPa 0,0 l/m 3,6 km/h (1 Bft) 0 min 0 min 20,1 km/h (4 Bft)
17.10.2012 15:28 18,0 C 14,5 C 0,0 UV-I 0,4 C 58 % 88 % 11 % 1006,2 hPa 0,0 l/m 4,0 km/h (1 Bft) 0 min 0 min 4,8 km/h (1 Bft)
17.10.2012 15:30 18,0 C 14,5 C 0,0 UV-I 0,4 C 58 % 88 % 11 % 1006,2 hPa 0,0 l/m 4,4 km/h (1 Bft) 0 min 0 min 6,4 km/h (2 Bft)
17.10.2012 15:32 18,0 C 14,6 C 0,0 UV-I 0,3 C 58 % 88 % 9 % 1006,2 hPa 0,0 l/m 4,8 km/h (1 Bft) 0 min 0 min 6,8 km/h (2 Bft)
17.10.2012 15:34 18,0 C 14,5 C 0,0 UV-I 0,4 C 59 % 88 % 11 % 1006,2 hPa 0,0 l/m 5,2 km/h (1 Bft) 0 min 0 min 5,2 km/h (1 Bft)
17.10.2012 15:36 18,0 C 14,6 C 0,0 UV-I 0,3 C 58 % 88 % 9 % 1006,2 hPa 0,0 l/m 5,2 km/h (1 Bft) 0 min 0 min 9,2 km/h (2 Bft)
17.10.2012 15:38 18,0 C 14,7 C 0,0 UV-I 0,2 C 58 % 88 % 6 % 1006,2 hPa 0,0 l/m 4,8 km/h (1 Bft) 0 min 0 min 7,2 km/h (2 Bft)
17.10.2012 15:40 18,0 C 14,5 C 0,0 UV-I 0,5 C 59 % 88 % 14 % 1006,2 hPa 0,0 l/m 5,2 km/h (1 Bft) 0 min 0 min 0,0 km/h (0 Bft)
17.10.2012 15:42 18,0 C 14,7 C 0,0 UV-I 0,3 C 58 % 88 % 9 % 1006,2 hPa 0,0 l/m 5,2 km/h (1 Bft) 0 min 0 min 7,2 km/h (2 Bft)
17.10.2012 15:44 18,0 C 14,6 C 0,0 UV-I 0,6 C 59 % 88 % 17 % 1006,2 hPa 0,0 l/m 5,2 km/h (1 Bft) 0 min 0 min 7,2 km/h (2 Bft)
17.10.2012 15:46 18,0 C 14,6 C 0,0 UV-I 0,6 C 59 % 88 % 17 % 1006,3 hPa 0,0 l/m 5,6 km/h (1 Bft) 0 min 0 min 9,6 km/h (2 Bft)
17.10.2012 15:48 18,0 C 14,7 C 0,0 UV-I 0,5 C 59 % 88 % 14 % 1006,3 hPa 0,0 l/m 5,2 km/h (1 Bft) 0 min 0 min 9,6 km/h (2 Bft)
17.10.2012 15:50 18,0 C 14,7 C 0,0 UV-I 0,6 C 59 % 88 % 17 % 1006,3 hPa 0,0 l/m 5,2 km/h (1 Bft) 0 min 0 min 8,4 km/h (2 Bft)
17.10.2012 15:52 18,0 C 14,7 C 0,0 UV-I 0,6 C 59 % 88 % 17 % 1006,3 hPa 0,0 l/m 5,2 km/h (1 Bft) 0 min 0 min 0,0 km/h (0 Bft)
17.10.2012 15:54 18,0 C 14,7 C 0,0 UV-I 0,6 C 59 % 88 % 17 % 1006,3 hPa 0,0 l/m 5,6 km/h (1 Bft) 0 min 0 min 11,2 km/h (2 Bft)
17.10.2012 15:56 18,0 C 14,6 C 0,0 UV-I 0,7 C 59 % 88 % 20 % 1006,3 hPa 0,0 l/m 5,2 km/h (1 Bft) 0 min 0 min 7,2 km/h (2 Bft)
17.10.2012 15:58 18,1 C 14,7 C 0,0 UV-I 0,6 C 59 % 88 % 17 % 1006,3 hPa 0,0 l/m 5,2 km/h (1 Bft) 0 min 0 min 6,4 km/h (2 Bft)
17.10.2012 16:00 18,1 C 14,7 C 0,0 UV-I 0,6 C 59 % 88 % 17 % 1006,3 hPa 0,0 l/m 5,6 km/h (1 Bft) 0 min 0 min 6,0 km/h (2 Bft)
17.10.2012 16:02 18,1 C 14,6 C 0,0 UV-I 0,6 C 59 % 88 % 17 % 1006,3 hPa 0,0 l/m 6,4 km/h (2 Bft) 0 min 0 min 8,8 km/h (2 Bft)
17.10.2012 16:04 18,1 C 14,7 C 0,0 UV-I 0,5 C 59 % 88 % 14 % 1006,3 hPa 0,0 l/m 6,4 km/h (2 Bft) 0 min 0 min 8,0 km/h (2 Bft)
17.10.2012 16:06 18,1 C 14,7 C 0,0 UV-I 0,5 C 59 % 88 % 14 % 1006,4 hPa 0,0 l/m 6,0 km/h (2 Bft) 0 min 0 min 5,2 km/h (1 Bft)
17.10.2012 16:08 18,1 C 14,6 C 0,0 UV-I 0,5 C 59 % 88 % 14 % 1006,4 hPa 0,0 l/m 6,0 km/h (2 Bft) 0 min 0 min 9,6 km/h (2 Bft)
17.10.2012 16:10 18,1 C 14,6 C 0,0 UV-I 0,5 C 59 % 88 % 14 % 1006,4 hPa 0,0 l/m 5,6 km/h (1 Bft) 0 min 0 min 11,2 km/h (2 Bft)
17.10.2012 16:12 18,1 C 14,7 C 0,0 UV-I 0,3 C 59 % 88 % 9 % 1006,4 hPa 0,0 l/m 5,6 km/h (1 Bft) 0 min 0 min 13,3 km/h (3 Bft)
17.10.2012 16:14 18,1 C 14,7 C 0,0 UV-I 0,3 C 59 % 88 % 9 % 1006,4 hPa 0,0 l/m 4,8 km/h (1 Bft) 0 min 0 min 6,0 km/h (2 Bft)
17.10.2012 16:16 18,1 C 14,7 C 0,0 UV-I 0,3 C 59 % 88 % 9 % 1006,4 hPa 0,0 l/m 4,8 km/h (1 Bft) 0 min 0 min 9,2 km/h (2 Bft)
17.10.2012 16:18 18,1 C 14,7 C 0,0 UV-I 0,3 C 59 % 88 % 9 % 1006,4 hPa 0,0 l/m 5,2 km/h (1 Bft) 0 min 0 min 8,8 km/h (2 Bft)
17.10.2012 16:20 18,1 C 14,7 C 0,0 UV-I 0,2 C 59 % 88 % 6 % 1006,4 hPa 0,0 l/m 5,6 km/h (1 Bft) 0 min 0 min 10,4 km/h (2 Bft)
17.10.2012 16:22 18,1 C 14,6 C 0,0 UV-I 0,3 C 59 % 88 % 9 % 1006,4 hPa 0,0 l/m 6,0 km/h (2 Bft) 0 min 0 min 6,4 km/h (2 Bft)
17.10.2012 16:24 18,1 C 14,5 C 0,0 UV-I 0,4 C 59 % 88 % 11 % 1006,4 hPa 0,0 l/m 6,4 km/h (2 Bft) 0 min 0 min 6,8 km/h (2 Bft)
17.10.2012 16:26 18,1 C 14,5 C 0,0 UV-I 0,4 C 59 % 88 % 11 % 1006,2 hPa 0,0 l/m 7,2 km/h (2 Bft) 0 min 0 min 4,8 km/h (1 Bft)
17.10.2012 16:28 18,1 C 14,5 C 0,0 UV-I 0,3 C 59 % 88 % 9 % 1006,2 hPa 0,0 l/m 8,0 km/h (2 Bft) 0 min 0 min 9,6 km/h (2 Bft)
17.10.2012 16:30 18,1 C 14,5 C 0,0 UV-I 0,3 C 59 % 88 % 9 % 1006,2 hPa 0,0 l/m 8,0 km/h (2 Bft) 0 min 0 min 13,7 km/h (3 Bft)
17.10.2012 16:32 18,1 C 14,5 C 0,0 UV-I 0,3 C 59 % 88 % 9 % 1006,2 hPa 0,0 l/m 8,0 km/h (2 Bft) 0 min 0 min 11,2 km/h (2 Bft)
17.10.2012 16:34 18,1 C 14,5 C 0,0 UV-I 0,3 C 59 % 88 % 9 % 1006,2 hPa 0,0 l/m 8,8 km/h (2 Bft) 0 min 0 min 12,4 km/h (3 Bft)
17.10.2012 16:36 18,1 C 14,6 C 0,0 UV-I 0,1 C 59 % 88 % 3 % 1006,2 hPa 0,0 l/m 8,8 km/h (2 Bft) 0 min 0 min 9,6 km/h (2 Bft)
17.10.2012 16:38 18,2 C 14,5 C 0,0 UV-I 0,2 C 59 % 88 % 6 % 1006,2 hPa 0,0 l/m 8,8 km/h (2 Bft) 0 min 0 min 10,8 km/h (2 Bft)
17.10.2012 16:40 18,1 C 14,6 C 0,0 UV-I 0,1 C 59 % 88 % 3 % 1006,2 hPa 0,0 l/m 8,4 km/h (2 Bft) 0 min 0 min 11,6 km/h (2 Bft)
17.10.2012 16:42 18,1 C 14,5 C 0,0 UV-I 0,1 C 59 % 88 % 3 % 1006,2 hPa 0,0 l/m 7,6 km/h (2 Bft) 0 min 0 min 5,2 km/h (1 Bft)
17.10.2012 16:44 18,1 C 14,5 C 0,0 UV-I 0,1 C 59 % 88 % 3 % 1006,2 hPa 0,0 l/m 6,4 km/h (2 Bft) 0 min 0 min 6,0 km/h (2 Bft)
17.10.2012 16:46 18,1 C 14,4 C 0,0 UV-I 0,1 C 59 % 88 % 3 % 1006,3 hPa 0,0 l/m 6,0 km/h (2 Bft) 0 min 0 min 6,8 km/h (2 Bft)
17.10.2012 16:48 18,1 C 14,5 C 0,0 UV-I 0,0 C 59 % 88 % 0 % 1006,3 hPa 0,0 l/m 5,6 km/h (1 Bft) 0 min 0 min 9,6 km/h (2 Bft)
17.10.2012 16:50 18,1 C 14,4 C 0,0 UV-I 0,1 C 59 % 88 % 3 % 1006,3 hPa 0,0 l/m 5,6 km/h (1 Bft) 0 min 0 min 6,0 km/h (2 Bft)
17.10.2012 16:52 18,1 C 14,4 C 0,0 UV-I 0,1 C 59 % 88 % 3 % 1006,3 hPa 0,0 l/m 5,2 km/h (1 Bft) 0 min 0 min 7,2 km/h (2 Bft)
17.10.2012 16:54 18,1 C 14,4 C 0,0 UV-I 0,1 C 59 % 88 % 3 % 1006,3 hPa 0,0 l/m 6,4 km/h (2 Bft) 0 min 0 min 9,2 km/h (2 Bft)
17.10.2012 16:56 18,1 C 14,4 C 0,0 UV-I 0,1 C 59 % 88 % 3 % 1006,3 hPa 0,0 l/m 6,4 km/h (2 Bft) 0 min 0 min 6,4 km/h (2 Bft)
17.10.2012 16:58 18,1 C 14,4 C 0,0 UV-I 0,0 C 59 % 88 % 0 % 1006,3 hPa 0,0 l/m 6,4 km/h (2 Bft) 0 min 0 min 9,2 km/h (2 Bft)
17.10.2012 17:00 18,1 C 14,5 C 0,0 UV-I 0,0 C 59 % 88 % 0 % 1006,3 hPa 0,0 l/m 5,6 km/h (1 Bft) 0 min 0 min 11,2 km/h (2 Bft)
17.10.2012 17:02 18,1 C 14,4 C 0,0 UV-I 0,0 C 59 % 88 % 0 % 1006,3 hPa 0,0 l/m 4,8 km/h (1 Bft) 0 min 0 min 0,0 km/h (0 Bft)
17.10.2012 17:04 18,1 C 14,4 C 0,0 UV-I 0,0 C 59 % 88 % 0 % 1006,3 hPa 0,0 l/m 4,4 km/h (1 Bft) 0 min 0 min 4,0 km/h (1 Bft)
17.10.2012 17:06 18,1 C 14,4 C 0,0 UV-I 0,0 C 59 % 88 % 0 % 1006,6 hPa 0,0 l/m 3,6 km/h (1 Bft) 0 min 0 min 7,2 km/h (2 Bft)
17.10.2012 17:08 18,1 C 14,4 C 0,0 UV-I 0,0 C 59 % 88 % 0 % 1006,6 hPa 0,0 l/m 3,6 km/h (1 Bft) 0 min 0 min 6,8 km/h (2 Bft)
17.10.2012 17:10 18,1 C 14,5 C 0,0 UV-I 0,0 C 59 % 88 % 0 % 1006,6 hPa 0,0 l/m 4,0 km/h (1 Bft) 0 min 0 min 7,6 km/h (2 Bft)
17.10.2012 17:12 18,1 C 14,4 C 0,0 UV-I 0,0 C 59 % 88 % 0 % 1006,6 hPa 0,0 l/m 4,0 km/h (1 Bft) 0 min 0 min 10,4 km/h (2 Bft)
17.10.2012 17:14 18,1 C 14,4 C 0,0 UV-I 0,0 C 59 % 88 % 0 % 1006,6 hPa 0,0 l/m 4,8 km/h (1 Bft) 0 min 0 min 5,2 km/h (1 Bft)
17.10.2012 17:16 18,1 C 14,4 C 0,0 UV-I 0,1 C 59 % 88 % 3 % 1006,6 hPa 0,0 l/m 6,0 km/h (2 Bft) 0 min 0 min 9,6 km/h (2 Bft)
17.10.2012 17:18 18,1 C 14,4 C 0,0 UV-I 0,1 C 59 % 88 % 3 % 1006,6 hPa 0,0 l/m 6,8 km/h (2 Bft) 0 min 0 min 7,6 km/h (2 Bft)
17.10.2012 17:20 18,1 C 14,4 C 0,0 UV-I 0,1 C 59 % 88 % 3 % 1006,6 hPa 0,0 l/m 7,2 km/h (2 Bft) 0 min 0 min 14,1 km/h (3 Bft)
17.10.2012 17:22 18,1 C 14,4 C 0,0 UV-I 0,1 C 59 % 89 % 3 % 1006,6 hPa 0,0 l/m 7,2 km/h (2 Bft) 0 min 0 min 7,2 km/h (2 Bft)
17.10.2012 17:24 18,1 C 14,5 C 0,0 UV-I 0,0 C 59 % 89 % 0 % 1006,6 hPa 0,0 l/m 6,0 km/h (2 Bft) 0 min 0 min 4,0 km/h (1 Bft)
17.10.2012 17:26 18,1 C 14,5 C 0,0 UV-I 0,0 C 59 % 89 % 0 % 1006,1 hPa 0,0 l/m 5,6 km/h (1 Bft) 0 min 0 min 8,4 km/h (2 Bft)
17.10.2012 17:28 18,2 C 14,5 C 0,0 UV-I 0,0 C 59 % 89 % 0 % 1006,1 hPa 0,0 l/m 4,8 km/h (1 Bft) 0 min 0 min 8,4 km/h (2 Bft)
17.10.2012 17:30 18,1 C 14,5 C 0,0 UV-I 0,0 C 59 % 89 % 0 % 1006,1 hPa 0,0 l/m 4,4 km/h (1 Bft) 0 min 0 min 4,0 km/h (1 Bft)
17.10.2012 17:32 18,1 C 14,5 C 0,0 UV-I 0,0 C 59 % 89 % 0 % 1006,1 hPa 0,0 l/m 3,2 km/h (1 Bft) 0 min 0 min 0,0 km/h (0 Bft)
17.10.2012 17:34 18,1 C 14,6 C 0,0 UV-I 0,0 C 59 % 89 % 0 % 1006,1 hPa 0,0 l/m 3,6 km/h (1 Bft) 0 min 0 min 15,3 km/h (3 Bft)
17.10.2012 17:36 18,1 C 14,6 C 0,0 UV-I 0,0 C 59 % 89 % 0 % 1006,1 hPa 0,0 l/m 4,4 km/h (1 Bft) 0 min 0 min 15,7 km/h (3 Bft)
17.10.2012 17:38 18,1 C 14,7 C 0,0 UV-I 0,0 C 59 % 89 % 0 % 1006,1 hPa 0,0 l/m 4,8 km/h (1 Bft) 0 min 0 min 8,4 km/h (2 Bft)
17.10.2012 17:40 18,1 C 14,7 C 0,0 UV-I 0,0 C 59 % 89 % 0 % 1006,1 hPa 0,0 l/m 5,2 km/h (1 Bft) 0 min 0 min 8,4 km/h (2 Bft)
17.10.2012 17:42 18,1 C 14,6 C 0,0 UV-I 0,0 C 59 % 89 % 0 % 1006,1 hPa 0,0 l/m 5,6 km/h (1 Bft) 0 min 0 min 7,2 km/h (2 Bft)
17.10.2012 17:44 18,1 C 14,6 C 0,0 UV-I 0,0 C 59 % 89 % 0 % 1006,1 hPa 0,0 l/m 6,8 km/h (2 Bft) 0 min 0 min 5,2 km/h (1 Bft)
17.10.2012 17:46 18,1 C 14,7 C 0,0 UV-I 0,0 C 59 % 89 % 0 % 1006,1 hPa 0,0 l/m 6,4 km/h (2 Bft) 0 min 0 min 9,2 km/h (2 Bft)
17.10.2012 17:48 18,1 C 14,7 C 0,0 UV-I 0,0 C 59 % 89 % 0 % 1006,1 hPa 0,0 l/m 6,0 km/h (2 Bft) 0 min 2 min 4,0 km/h (1 Bft)
17.10.2012 17:50 18,2 C 14,7 C 0,0 UV-I 0,0 C 59 % 88 % 0 % 1006,1 hPa 0,0 l/m 5,6 km/h (1 Bft) 0 min 2 min 12,0 km/h (2 Bft)
17.10.2012 17:52 18,1 C 14,7 C 0,0 UV-I 0,0 C 59 % 88 % 0 % 1006,1 hPa 0,0 l/m 6,4 km/h (2 Bft) 0 min 2 min 9,2 km/h (2 Bft)
17.10.2012 17:54 18,1 C 14,7 C 0,0 UV-I 0,0 C 59 % 88 % 0 % 1006,1 hPa 0,0 l/m 5,6 km/h (1 Bft) 0 min 2 min 0,0 km/h (0 Bft)
17.10.2012 17:56 18,1 C 14,7 C 0,0 UV-I 0,0 C 59 % 88 % 0 % 1006,1 hPa 0,0 l/m 6,4 km/h (2 Bft) 0 min 0 min 12,4 km/h (3 Bft)
17.10.2012 17:58 18,1 C 14,7 C 0,0 UV-I 0,0 C 59 % 88 % 0 % 1006,1 hPa 0,0 l/m 6,4 km/h (2 Bft) 0 min 0 min 6,4 km/h (2 Bft)
17.10.2012 18:00 18,1 C 14,7 C 0,0 UV-I 0,0 C 59 % 88 % 0 % 1006,1 hPa 0,0 l/m 6,8 km/h (2 Bft) 0 min 0 min 16,9 km/h (3 Bft)
17.10.2012 18:02 18,1 C 14,7 C 0,0 UV-I 0,0 C 60 % 88 % 0 % 1006,1 hPa 0,0 l/m 7,2 km/h (2 Bft) 0 min 0 min 12,0 km/h (2 Bft)
17.10.2012 18:04 18,1 C 14,6 C 0,0 UV-I 0,0 C 59 % 88 % 0 % 1006,1 hPa 0,0 l/m 6,4 km/h (2 Bft) 0 min 0 min 8,8 km/h (2 Bft)
17.10.2012 18:06 18,1 C 14,6 C 0,0 UV-I 0,0 C 60 % 88 % 0 % 1006,1 hPa 0,0 l/m 7,6 km/h (2 Bft) 0 min 0 min 14,9 km/h (3 Bft)
17.10.2012 18:08 18,1 C 14,7 C 0,0 UV-I 0,0 C 60 % 88 % 0 % 1006,1 hPa 0,0 l/m 7,6 km/h (2 Bft) 0 min 0 min 8,4 km/h (2 Bft)
17.10.2012 18:10 18,2 C 14,7 C 0,0 UV-I 0,0 C 60 % 88 % 0 % 1006,1 hPa 0,0 l/m 7,2 km/h (2 Bft) 0 min 0 min 6,8 km/h (2 Bft)
17.10.2012 18:12 18,1 C 14,6 C 0,0 UV-I 0,0 C 60 % 88 % 0 % 1006,1 hPa 0,0 l/m 6,8 km/h (2 Bft) 0 min 0 min 6,4 km/h (2 Bft)
17.10.2012 18:14 18,1 C 14,7 C 0,0 UV-I 0,0 C 60 % 88 % 0 % 1006,1 hPa 0,0 l/m 7,2 km/h (2 Bft) 0 min 0 min 8,4 km/h (2 Bft)
17.10.2012 18:16 18,1 C 14,7 C 0,0 UV-I 0,0 C 60 % 88 % 0 % 1006,1 hPa 0,0 l/m 7,2 km/h (2 Bft) 0 min 0 min 12,4 km/h (3 Bft)
17.10.2012 18:18 18,1 C 14,6 C 0,0 UV-I 0,0 C 60 % 88 % 0 % 1006,1 hPa 0,0 l/m 6,4 km/h (2 Bft) 0 min 0 min 8,8 km/h (2 Bft)
17.10.2012 18:20 18,1 C 14,6 C 0,0 UV-I 0,0 C 60 % 88 % 0 % 1006,1 hPa 0,0 l/m 6,8 km/h (2 Bft) 0 min 0 min 7,2 km/h (2 Bft)
17.10.2012 18:22 18,1 C 14,7 C 0,0 UV-I 0,0 C 60 % 88 % 0 % 1006,1 hPa 0,0 l/m 8,0 km/h (2 Bft) 0 min 0 min 9,2 km/h (2 Bft)
17.10.2012 18:24 18,1 C 14,7 C 0,0 UV-I 0,0 C 60 % 88 % 0 % 1006,1 hPa 0,0 l/m 7,6 km/h (2 Bft) 0 min 0 min 12,0 km/h (2 Bft)
17.10.2012 18:26 18,1 C 14,7 C 0,0 UV-I 0,0 C 60 % 88 % 0 % 1006,4 hPa 0,0 l/m 6,8 km/h (2 Bft) 0 min 0 min 8,8 km/h (2 Bft)
17.10.2012 18:28 18,1 C 14,7 C 0,0 UV-I 0,0 C 60 % 88 % 0 % 1006,4 hPa 0,0 l/m 6,4 km/h (2 Bft) 0 min 0 min 7,6 km/h (2 Bft)
17.10.2012 18:30 18,1 C 14,7 C 0,0 UV-I 0,0 C 60 % 88 % 0 % 1006,4 hPa 0,0 l/m 7,2 km/h (2 Bft) 0 min 0 min 20,5 km/h (4 Bft)
17.10.2012 18:32 18,1 C 14,7 C 0,0 UV-I 0,0 C 60 % 88 % 0 % 1006,4 hPa 0,0 l/m 6,8 km/h (2 Bft) 0 min 0 min 12,0 km/h (2 Bft)
17.10.2012 18:34 18,1 C 14,7 C 0,0 UV-I 0,0 C 60 % 88 % 0 % 1006,4 hPa 0,0 l/m 6,8 km/h (2 Bft) 0 min 0 min 9,2 km/h (2 Bft)
17.10.2012 18:36 18,1 C 14,7 C 0,0 UV-I 0,0 C 60 % 88 % 0 % 1006,4 hPa 0,0 l/m 7,6 km/h (2 Bft) 0 min 0 min 15,3 km/h (3 Bft)
17.10.2012 18:38 18,1 C 14,7 C 0,0 UV-I 0,0 C 60 % 88 % 0 % 1006,4 hPa 0,0 l/m 8,0 km/h (2 Bft) 0 min 0 min 20,9 km/h (4 Bft)
17.10.2012 18:40 18,1 C 14,7 C 0,0 UV-I 0,0 C 60 % 88 % 0 % 1006,4 hPa 0,0 l/m 7,6 km/h (2 Bft) 0 min 0 min 6,0 km/h (2 Bft)
17.10.2012 18:42 18,1 C 14,7 C 0,0 UV-I 0,0 C 60 % 88 % 0 % 1006,4 hPa 0,0 l/m 7,6 km/h (2 Bft) 0 min 0 min 13,3 km/h (3 Bft)
17.10.2012 18:44 18,1 C 14,7 C 0,0 UV-I 0,0 C 60 % 88 % 0 % 1006,4 hPa 0,0 l/m 7,6 km/h (2 Bft) 0 min 0 min 14,5 km/h (3 Bft)
17.10.2012 18:46 18,1 C 14,8 C 0,0 UV-I 0,0 C 60 % 88 % 0 % 1006,6 hPa 0,0 l/m 7,6 km/h (2 Bft) 0 min 0 min 5,2 km/h (1 Bft)
17.10.2012 18:48 18,1 C 14,8 C 0,0 UV-I 0,0 C 60 % 88 % 0 % 1006,6 hPa 0,0 l/m 7,6 km/h (2 Bft) 0 min 0 min 15,3 km/h (3 Bft)
17.10.2012 18:50 18,1 C 14,8 C 0,0 UV-I 0,0 C 60 % 88 % 0 % 1006,6 hPa 0,0 l/m 6,8 km/h (2 Bft) 0 min 0 min 0,0 km/h (0 Bft)
17.10.2012 18:52 18,1 C 14,8 C 0,0 UV-I 0,0 C 60 % 88 % 0 % 1006,6 hPa 0,0 l/m 6,4 km/h (2 Bft) 0 min 0 min 6,0 km/h (2 Bft)
17.10.2012 18:54 18,1 C 14,8 C 0,0 UV-I 0,0 C 60 % 88 % 0 % 1006,6 hPa 0,0 l/m 5,6 km/h (1 Bft) 0 min 0 min 5,2 km/h (1 Bft)
17.10.2012 18:56 18,1 C 14,9 C 0,0 UV-I 0,0 C 60 % 88 % 0 % 1006,6 hPa 0,0 l/m 4,8 km/h (1 Bft) 0 min 0 min 7,6 km/h (2 Bft)
17.10.2012 18:58 18,1 C 14,8 C 0,0 UV-I 0,0 C 60 % 88 % 0 % 1006,6 hPa 0,0 l/m 4,0 km/h (1 Bft) 0 min 0 min 4,8 km/h (1 Bft)
17.10.2012 19:00 18,1 C 14,8 C 0,0 UV-I 0,0 C 60 % 88 % 0 % 1006,6 hPa 0,0 l/m 3,2 km/h (1 Bft) 0 min 0 min 8,4 km/h (2 Bft)
17.10.2012 19:02 18,1 C 14,8 C 0,0 UV-I 0,0 C 60 % 88 % 0 % 1006,6 hPa 0,0 l/m 3,6 km/h (1 Bft) 0 min 0 min 11,6 km/h (2 Bft)
17.10.2012 19:04 18,1 C 14,8 C 0,0 UV-I 0,0 C 60 % 88 % 0 % 1006,6 hPa 0,0 l/m 4,0 km/h (1 Bft) 0 min 0 min 11,2 km/h (2 Bft)
17.10.2012 19:06 18,1 C 14,9 C 0,0 UV-I 0,0 C 61 % 88 % 0 % 1006,8 hPa 0,0 l/m 4,8 km/h (1 Bft) 0 min 0 min 9,6 km/h (2 Bft)
17.10.2012 19:08 18,1 C 14,9 C 0,0 UV-I 0,0 C 60 % 88 % 0 % 1006,8 hPa 0,0 l/m 6,0 km/h (2 Bft) 0 min 0 min 10,4 km/h (2 Bft)
17.10.2012 19:10 18,1 C 14,9 C 0,0 UV-I 0,0 C 61 % 88 % 0 % 1006,8 hPa 0,0 l/m 6,4 km/h (2 Bft) 0 min 0 min 0,0 km/h (0 Bft)
17.10.2012 19:12 18,1 C 14,8 C 0,0 UV-I 0,0 C 61 % 88 % 0 % 1006,8 hPa 0,0 l/m 7,2 km/h (2 Bft) 0 min 0 min 7,2 km/h (2 Bft)
17.10.2012 19:14 18,1 C 14,8 C 0,0 UV-I 0,0 C 61 % 88 % 0 % 1006,8 hPa 0,0 l/m 6,4 km/h (2 Bft) 0 min 0 min 6,0 km/h (2 Bft)
17.10.2012 19:16 18,1 C 14,8 C 0,0 UV-I 0,0 C 61 % 88 % 0 % 1006,8 hPa 0,0 l/m 6,8 km/h (2 Bft) 0 min 0 min 11,2 km/h (2 Bft)
17.10.2012 19:18 18,1 C 14,8 C 0,0 UV-I 0,0 C 61 % 88 % 0 % 1006,8 hPa 0,0 l/m 6,8 km/h (2 Bft) 0 min 0 min 9,6 km/h (2 Bft)
17.10.2012 19:20 18,1 C 14,8 C 0,0 UV-I 0,0 C 61 % 88 % 0 % 1006,8 hPa 0,0 l/m 5,2 km/h (1 Bft) 0 min 0 min 4,0 km/h (1 Bft)
17.10.2012 19:22 18,1 C 14,8 C 0,0 UV-I 0,0 C 61 % 88 % 0 % 1006,8 hPa 0,0 l/m 5,6 km/h (1 Bft) 0 min 0 min 16,9 km/h (3 Bft)
17.10.2012 19:24 18,1 C 14,8 C 0,0 UV-I 0,0 C 61 % 88 % 0 % 1006,8 hPa 0,0 l/m 5,2 km/h (1 Bft) 0 min 0 min 7,2 km/h (2 Bft)
17.10.2012 19:26 18,1 C 14,8 C 0,0 UV-I 0,0 C 61 % 88 % 0 % 1007,0 hPa 0,0 l/m 5,2 km/h (1 Bft) 0 min 0 min 9,6 km/h (2 Bft)
17.10.2012 19:28 18,1 C 14,7 C 0,0 UV-I 0,0 C 61 % 88 % 0 % 1007,0 hPa 0,0 l/m 4,0 km/h (1 Bft) 0 min 0 min 0,0 km/h (0 Bft)
17.10.2012 19:30 18,1 C 14,7 C 0,0 UV-I 0,0 C 61 % 88 % 0 % 1007,0 hPa 0,0 l/m 3,6 km/h (1 Bft) 0 min 0 min 0,0 km/h (0 Bft)
17.10.2012 19:32 18,1 C 14,7 C 0,0 UV-I 0,0 C 61 % 88 % 0 % 1007,0 hPa 0,0 l/m 3,6 km/h (1 Bft) 0 min 0 min 4,8 km/h (1 Bft)
17.10.2012 19:34 18,1 C 14,7 C 0,0 UV-I 0,0 C 61 % 88 % 0 % 1007,0 hPa 0,0 l/m 3,6 km/h (1 Bft) 0 min 0 min 0,0 km/h (0 Bft)
17.10.2012 19:36 18,1 C 14,7 C 0,0 UV-I 0,0 C 61 % 88 % 0 % 1007,0 hPa 0,0 l/m 3,2 km/h (1 Bft) 0 min 0 min 8,4 km/h (2 Bft)
17.10.2012 19:38 18,1 C 14,7 C 0,0 UV-I 0,0 C 61 % 88 % 0 % 1007,0 hPa 0,0 l/m 3,2 km/h (1 Bft) 0 min 0 min 0,0 km/h (0 Bft)
17.10.2012 19:40 18,1 C 14,7 C 0,0 UV-I 0,0 C 61 % 88 % 0 % 1007,0 hPa 0,0 l/m 3,6 km/h (1 Bft) 0 min 0 min 6,0 km/h (2 Bft)
17.10.2012 19:42 18,1 C 14,7 C 0,0 UV-I 0,0 C 61 % 88 % 0 % 1007,0 hPa 0,0 l/m 4,4 km/h (1 Bft) 0 min 0 min 9,6 km/h (2 Bft)
17.10.2012 19:44 18,1 C 14,7 C 0,0 UV-I 0,0 C 61 % 88 % 0 % 1007,0 hPa 0,0 l/m 4,0 km/h (1 Bft) 0 min 0 min 5,2 km/h (1 Bft)
17.10.2012 19:46 18,1 C 14,7 C 0,0 UV-I 0,0 C 61 % 88 % 0 % 1006,8 hPa 0,0 l/m 4,8 km/h (1 Bft) 0 min 0 min 10,8 km/h (2 Bft)
17.10.2012 19:48 18,1 C 14,7 C 0,0 UV-I 0,0 C 61 % 88 % 0 % 1006,8 hPa 0,0 l/m 4,8 km/h (1 Bft) 0 min 0 min 9,6 km/h (2 Bft)
17.10.2012 19:50 18,1 C 14,7 C 0,0 UV-I 0,0 C 61 % 88 % 0 % 1006,8 hPa 0,0 l/m 5,2 km/h (1 Bft) 0 min 0 min 5,2 km/h (1 Bft)
17.10.2012 19:52 18,1 C 14,7 C 0,0 UV-I 0,0 C 61 % 88 % 0 % 1006,8 hPa 0,0 l/m 5,6 km/h (1 Bft) 0 min 0 min 6,0 km/h (2 Bft)
17.10.2012 19:54 18,1 C 14,7 C 0,0 UV-I 0,0 C 61 % 88 % 0 % 1006,8 hPa 0,0 l/m 4,8 km/h (1 Bft) 0 min 0 min 8,4 km/h (2 Bft)
17.10.2012 19:56 18,1 C 14,7 C 0,0 UV-I 0,0 C 61 % 88 % 0 % 1006,8 hPa 0,0 l/m 4,8 km/h (1 Bft) 0 min 0 min 0,0 km/h (0 Bft)
17.10.2012 19:58 18,1 C 14,7 C 0,0 UV-I 0,0 C 61 % 88 % 0 % 1006,8 hPa 0,0 l/m 5,2 km/h (1 Bft) 0 min 0 min 8,8 km/h (2 Bft)
17.10.2012 20:00 18,1 C 14,7 C 0,0 UV-I 0,0 C 61 % 88 % 0 % 1006,8 hPa 0,0 l/m 4,4 km/h (1 Bft) 0 min 0 min 0,0 km/h (0 Bft)
17.10.2012 20:02 18,1 C 14,7 C 0,0 UV-I 0,0 C 61 % 88 % 0 % 1006,8 hPa 0,0 l/m 3,6 km/h (1 Bft) 0 min 0 min 6,0 km/h (2 Bft)
17.10.2012 20:04 18,1 C 14,7 C 0,0 UV-I 0,0 C 61 % 88 % 0 % 1006,8 hPa 0,0 l/m 4,8 km/h (1 Bft) 0 min 0 min 8,0 km/h (2 Bft)
17.10.2012 20:06 18,1 C 14,8 C 0,0 UV-I 0,0 C 61 % 89 % 0 % 1007,0 hPa 0,0 l/m 4,4 km/h (1 Bft) 0 min 2 min 7,2 km/h (2 Bft)
17.10.2012 20:08 18,1 C 14,7 C 0,0 UV-I 0,0 C 61 % 88 % 0 % 1007,0 hPa 0,0 l/m 5,2 km/h (1 Bft) 0 min 2 min 8,0 km/h (2 Bft)
17.10.2012 20:10 18,1 C 14,7 C 0,0 UV-I 0,0 C 61 % 88 % 0 % 1007,0 hPa 0,0 l/m 4,4 km/h (1 Bft) 0 min 2 min 4,0 km/h (1 Bft)
17.10.2012 20:12 18,1 C 14,8 C 0,0 UV-I 0,0 C 61 % 89 % 0 % 1007,0 hPa 0,0 l/m 5,6 km/h (1 Bft) 0 min 2 min 10,4 km/h (2 Bft)
17.10.2012 20:14 18,1 C 14,7 C 0,0 UV-I 0,0 C 61 % 88 % 0 % 1007,0 hPa 0,0 l/m 4,4 km/h (1 Bft) 0 min 0 min 4,4 km/h (1 Bft)
17.10.2012 20:16 18,1 C 14,7 C 0,0 UV-I 0,0 C 61 % 88 % 0 % 1007,0 hPa 0,0 l/m 4,0 km/h (1 Bft) 0 min 0 min 0,0 km/h (0 Bft)
17.10.2012 20:18 18,1 C 14,7 C 0,0 UV-I 0,0 C 61 % 88 % 0 % 1007,0 hPa 0,0 l/m 4,0 km/h (1 Bft) 0 min 0 min 12,0 km/h (2 Bft)
17.10.2012 20:20 18,1 C 14,7 C 0,0 UV-I 0,0 C 61 % 88 % 0 % 1007,0 hPa 0,0 l/m 4,0 km/h (1 Bft) 0 min 0 min 8,0 km/h (2 Bft)
17.10.2012 20:22 18,1 C 14,7 C 0,0 UV-I 0,0 C 61 % 88 % 0 % 1007,0 hPa 0,0 l/m 4,0 km/h (1 Bft) 0 min 0 min 4,8 km/h (1 Bft)
17.10.2012 20:24 18,1 C 14,6 C 0,0 UV-I 0,0 C 61 % 88 % 0 % 1007,0 hPa 0,0 l/m 4,0 km/h (1 Bft) 0 min 0 min 4,8 km/h (1 Bft)
17.10.2012 20:26 18,1 C 14,6 C 0,0 UV-I 0,0 C 61 % 88 % 0 % 1006,6 hPa 0,0 l/m 4,8 km/h (1 Bft) 0 min 0 min 10,8 km/h (2 Bft)
17.10.2012 20:28 18,1 C 14,7 C 0,0 UV-I 0,0 C 61 % 88 % 0 % 1006,6 hPa 0,0 l/m 6,0 km/h (2 Bft) 0 min 0 min 12,0 km/h (2 Bft)
17.10.2012 20:30 18,1 C 14,7 C 0,0 UV-I 0,0 C 61 % 88 % 0 % 1006,6 hPa 0,0 l/m 6,4 km/h (2 Bft) 0 min 0 min 11,2 km/h (2 Bft)
17.10.2012 20:32 18,1 C 14,7 C 0,0 UV-I 0,0 C 61 % 88 % 0 % 1006,6 hPa 0,0 l/m 6,8 km/h (2 Bft) 0 min 0 min 7,2 km/h (2 Bft)
17.10.2012 20:34 18,1 C 14,7 C 0,0 UV-I 0,0 C 61 % 88 % 0 % 1006,6 hPa 0,0 l/m 7,6 km/h (2 Bft) 0 min 0 min 8,8 km/h (2 Bft)
17.10.2012 20:36 18,1 C 14,8 C 0,0 UV-I 0,0 C 61 % 89 % 0 % 1006,6 hPa 0,0 l/m 7,6 km/h (2 Bft) 0 min 0 min 5,6 km/h (1 Bft)
17.10.2012 20:38 18,1 C 14,8 C 0,0 UV-I 0,0 C 61 % 89 % 0 % 1006,6 hPa 0,0 l/m 7,2 km/h (2 Bft) 0 min 0 min 6,0 km/h (2 Bft)
17.10.2012 20:40 18,1 C 14,8 C 0,0 UV-I 0,0 C 61 % 89 % 0 % 1006,6 hPa 0,0 l/m 6,4 km/h (2 Bft) 0 min 0 min 5,6 km/h (1 Bft)
17.10.2012 20:42 18,1 C 14,8 C 0,0 UV-I 0,0 C 61 % 89 % 0 % 1006,6 hPa 0,0 l/m 6,0 km/h (2 Bft) 0 min 0 min 6,4 km/h (2 Bft)
17.10.2012 20:44 18,1 C 14,8 C 0,0 UV-I 0,0 C 61 % 88 % 0 % 1006,6 hPa 0,0 l/m 5,2 km/h (1 Bft) 0 min 0 min 11,2 km/h (2 Bft)
17.10.2012 20:46 18,1 C 14,8 C 0,0 UV-I 0,0 C 61 % 88 % 0 % 1006,5 hPa 0,0 l/m 5,2 km/h (1 Bft) 0 min 0 min 12,0 km/h (2 Bft)
17.10.2012 20:48 18,1 C 14,8 C 0,0 UV-I 0,0 C 61 % 88 % 0 % 1006,5 hPa 0,0 l/m 5,2 km/h (1 Bft) 0 min 0 min 5,6 km/h (1 Bft)
17.10.2012 20:50 18,1 C 14,8 C 0,0 UV-I 0,0 C 61 % 88 % 0 % 1006,5 hPa 0,0 l/m 5,6 km/h (1 Bft) 0 min 0 min 5,6 km/h (1 Bft)
17.10.2012 20:52 18,1 C 14,8 C 0,0 UV-I 0,0 C 61 % 88 % 0 % 1006,5 hPa 0,0 l/m 4,8 km/h (1 Bft) 0 min 0 min 4,0 km/h (1 Bft)
17.10.2012 20:54 18,1 C 14,8 C 0,0 UV-I 0,0 C 61 % 88 % 0 % 1006,5 hPa 0,0 l/m 4,4 km/h (1 Bft) 0 min 0 min 5,2 km/h (1 Bft)
17.10.2012 20:56 18,1 C 14,7 C 0,0 UV-I 0,0 C 61 % 88 % 0 % 1006,5 hPa 0,0 l/m 4,4 km/h (1 Bft) 0 min 0 min 7,2 km/h (2 Bft)
17.10.2012 20:58 18,1 C 14,7 C 0,0 UV-I 0,0 C 61 % 88 % 0 % 1006,5 hPa 0,0 l/m 3,6 km/h (1 Bft) 0 min 0 min 5,6 km/h (1 Bft)
17.10.2012 21:00 18,1 C 14,7 C 0,0 UV-I 0,0 C 61 % 88 % 0 % 1006,5 hPa 0,0 l/m 2,8 km/h (1 Bft) 0 min 0 min 4,8 km/h (1 Bft)
17.10.2012 21:02 18,1 C 14,7 C 0,0 UV-I 0,0 C 61 % 88 % 0 % 1006,5 hPa 0,0 l/m 1,6 km/h (1 Bft) 0 min 0 min 4,4 km/h (1 Bft)
17.10.2012 21:04 18,1 C 14,7 C 0,0 UV-I 0,0 C 61 % 88 % 0 % 1006,5 hPa 0,0 l/m 2,4 km/h (1 Bft) 0 min 0 min 7,2 km/h (2 Bft)
17.10.2012 21:06 18,2 C 14,7 C 0,0 UV-I 0,0 C 61 % 88 % 0 % 1006,3 hPa 0,0 l/m 2,8 km/h (1 Bft) 0 min 0 min 4,8 km/h (1 Bft)
17.10.2012 21:08 18,1 C 14,7 C 0,0 UV-I 0,0 C 61 % 88 % 0 % 1006,3 hPa 0,0 l/m 2,8 km/h (1 Bft) 0 min 0 min 5,2 km/h (1 Bft)
17.10.2012 21:10 18,1 C 14,6 C 0,0 UV-I 0,0 C 61 % 88 % 0 % 1006,3 hPa 0,0 l/m 2,8 km/h (1 Bft) 0 min 0 min 4,0 km/h (1 Bft)
17.10.2012 21:12 18,2 C 14,6 C 0,0 UV-I 0,0 C 61 % 88 % 0 % 1006,3 hPa 0,0 l/m 3,2 km/h (1 Bft) 0 min 0 min 4,0 km/h (1 Bft)
17.10.2012 21:14 18,1 C 14,5 C 0,0 UV-I 0,0 C 61 % 88 % 0 % 1006,3 hPa 0,0 l/m 2,8 km/h (1 Bft) 0 min 0 min 0,0 km/h (0 Bft)
17.10.2012 21:16 18,2 C 14,5 C 0,0 UV-I 0,0 C 61 % 88 % 0 % 1006,3 hPa 0,0 l/m 2,4 km/h (1 Bft) 0 min 0 min 4,4 km/h (1 Bft)
17.10.2012 21:18 18,1 C 14,5 C 0,0 UV-I 0,0 C 61 % 88 % 0 % 1006,3 hPa 0,0 l/m 2,4 km/h (1 Bft) 0 min 0 min 5,2 km/h (1 Bft)
17.10.2012 21:20 18,2 C 14,4 C 0,0 UV-I 0,0 C 61 % 88 % 0 % 1006,3 hPa 0,0 l/m 3,2 km/h (1 Bft) 0 min 0 min 7,6 km/h (2 Bft)
17.10.2012 21:22 18,2 C 14,4 C 0,0 UV-I 0,0 C 61 % 88 % 0 % 1006,3 hPa 0,0 l/m 3,6 km/h (1 Bft) 0 min 0 min 8,8 km/h (2 Bft)
17.10.2012 21:24 18,2 C 14,5 C 0,0 UV-I 0,0 C 61 % 88 % 0 % 1006,3 hPa 0,0 l/m 4,8 km/h (1 Bft) 0 min 0 min 7,2 km/h (2 Bft)
17.10.2012 21:26 18,1 C 14,5 C 0,0 UV-I 0,0 C 61 % 88 % 0 % 1006,2 hPa 0,0 l/m 6,0 km/h (2 Bft) 0 min 0 min 12,8 km/h (3 Bft)
17.10.2012 21:28 18,2 C 14,4 C 0,0 UV-I 0,0 C 61 % 88 % 0 % 1006,2 hPa 0,0 l/m 6,8 km/h (2 Bft) 0 min 0 min 10,4 km/h (2 Bft)
17.10.2012 21:30 18,1 C 14,4 C 0,0 UV-I 0,0 C 61 % 88 % 0 % 1006,2 hPa 0,0 l/m 7,2 km/h (2 Bft) 0 min 0 min 10,8 km/h (2 Bft)
17.10.2012 21:32 18,2 C 14,4 C 0,0 UV-I 0,0 C 61 % 89 % 0 % 1006,2 hPa 0,0 l/m 8,0 km/h (2 Bft) 0 min 0 min 7,2 km/h (2 Bft)
17.10.2012 21:34 18,2 C 14,4 C 0,0 UV-I 0,0 C 61 % 89 % 0 % 1006,2 hPa 0,0 l/m 8,0 km/h (2 Bft) 0 min 0 min 7,6 km/h (2 Bft)
17.10.2012 21:36 18,2 C 14,4 C 0,0 UV-I 0,0 C 61 % 89 % 0 % 1006,2 hPa 0,0 l/m 7,6 km/h (2 Bft) 0 min 0 min 8,4 km/h (2 Bft)
17.10.2012 21:38 18,2 C 14,5 C 0,0 UV-I 0,0 C 61 % 89 % 0 % 1006,2 hPa 0,0 l/m 7,6 km/h (2 Bft) 0 min 0 min 12,8 km/h (3 Bft)
17.10.2012 21:40 18,2 C 14,4 C 0,0 UV-I 0,0 C 61 % 89 % 0 % 1006,2 hPa 0,0 l/m 6,8 km/h (2 Bft) 0 min 0 min 7,2 km/h (2 Bft)
17.10.2012 21:42 18,2 C 14,4 C 0,0 UV-I 0,0 C 61 % 89 % 0 % 1006,2 hPa 0,0 l/m 6,4 km/h (2 Bft) 0 min 0 min 9,6 km/h (2 Bft)
17.10.2012 21:44 18,2 C 14,5 C 0,0 UV-I 0,0 C 61 % 89 % 0 % 1006,2 hPa 0,0 l/m 6,4 km/h (2 Bft) 0 min 0 min 7,2 km/h (2 Bft)
17.10.2012 21:46 18,2 C 14,4 C 0,0 UV-I 0,0 C 61 % 89 % 0 % 1006,2 hPa 0,0 l/m 6,4 km/h (2 Bft) 0 min 0 min 0,0 km/h (0 Bft)
17.10.2012 21:48 18,2 C 14,4 C 0,0 UV-I 0,0 C 61 % 89 % 0 % 1006,2 hPa 0,0 l/m 6,0 km/h (2 Bft) 0 min 0 min 9,6 km/h (2 Bft)
17.10.2012 21:50 18,2 C 14,4 C 0,0 UV-I 0,0 C 61 % 89 % 0 % 1006,2 hPa 0,0 l/m 6,0 km/h (2 Bft) 0 min 0 min 8,4 km/h (2 Bft)
17.10.2012 21:52 18,2 C 14,4 C 0,0 UV-I 0,0 C 61 % 89 % 0 % 1006,2 hPa 0,0 l/m 6,4 km/h (2 Bft) 0 min 0 min 10,8 km/h (2 Bft)
17.10.2012 21:54 18,2 C 14,4 C 0,0 UV-I 0,0 C 61 % 89 % 0 % 1006,2 hPa 0,0 l/m 6,4 km/h (2 Bft) 0 min 0 min 9,6 km/h (2 Bft)
17.10.2012 21:56 18,2 C 14,4 C 0,0 UV-I 0,0 C 61 % 89 % 0 % 1006,2 hPa 0,0 l/m 6,0 km/h (2 Bft) 0 min 0 min 7,2 km/h (2 Bft)
17.10.2012 21:58 18,1 C 14,5 C 0,0 UV-I 0,0 C 61 % 89 % 0 % 1006,2 hPa 0,0 l/m 6,4 km/h (2 Bft) 0 min 0 min 7,2 km/h (2 Bft)
17.10.2012 22:00 18,1 C 14,4 C 0,0 UV-I 0,0 C 61 % 89 % 0 % 1006,2 hPa 0,0 l/m 6,4 km/h (2 Bft) 0 min 0 min 6,8 km/h (2 Bft)
17.10.2012 22:02 18,1 C 14,4 C 0,0 UV-I 0,0 C 62 % 89 % 0 % 1006,2 hPa 0,0 l/m 6,0 km/h (2 Bft) 0 min 0 min 7,2 km/h (2 Bft)
17.10.2012 22:04 18,2 C 14,4 C 0,0 UV-I 0,0 C 61 % 89 % 0 % 1006,2 hPa 0,0 l/m 6,0 km/h (2 Bft) 0 min 0 min 6,0 km/h (2 Bft)
17.10.2012 22:06 18,2 C 14,4 C 0,0 UV-I 0,0 C 61 % 89 % 0 % 1006,2 hPa 0,0 l/m 6,0 km/h (2 Bft) 0 min 0 min 10,0 km/h (2 Bft)
17.10.2012 22:08 18,2 C 14,4 C 0,0 UV-I 0,0 C 61 % 89 % 0 % 1006,2 hPa 0,0 l/m 6,4 km/h (2 Bft) 0 min 0 min 9,2 km/h (2 Bft)
17.10.2012 22:10 18,2 C 14,4 C 0,0 UV-I 0,0 C 61 % 89 % 0 % 1006,2 hPa 0,0 l/m 6,0 km/h (2 Bft) 0 min 0 min 8,4 km/h (2 Bft)
17.10.2012 22:12 18,2 C 14,4 C 0,0 UV-I 0,0 C 61 % 89 % 0 % 1006,2 hPa 0,0 l/m 6,4 km/h (2 Bft) 0 min 0 min 8,4 km/h (2 Bft)
17.10.2012 22:14 18,2 C 14,4 C 0,0 UV-I 0,0 C 62 % 89 % 0 % 1006,2 hPa 0,0 l/m 6,4 km/h (2 Bft) 0 min 0 min 10,0 km/h (2 Bft)
17.10.2012 22:16 18,2 C 14,4 C 0,0 UV-I 0,0 C 62 % 89 % 0 % 1006,2 hPa 0,0 l/m 6,8 km/h (2 Bft) 0 min 0 min 9,6 km/h (2 Bft)
17.10.2012 22:18 18,2 C 14,4 C 0,0 UV-I 0,0 C 61 % 89 % 0 % 1006,2 hPa 0,0 l/m 6,8 km/h (2 Bft) 0 min 0 min 6,8 km/h (2 Bft)
17.10.2012 22:20 18,2 C 14,4 C 0,0 UV-I 0,0 C 62 % 90 % 0 % 1006,2 hPa 0,0 l/m 6,8 km/h (2 Bft) 0 min 0 min 9,6 km/h (2 Bft)
17.10.2012 22:22 18,2 C 14,4 C 0,0 UV-I 0,0 C 62 % 90 % 0 % 1006,2 hPa 0,0 l/m 6,4 km/h (2 Bft) 0 min 0 min 7,2 km/h (2 Bft)
17.10.2012 22:24 18,2 C 14,4 C 0,0 UV-I 0,0 C 62 % 90 % 0 % 1006,2 hPa 0,0 l/m 6,4 km/h (2 Bft) 0 min 0 min 5,6 km/h (1 Bft)
17.10.2012 22:26 18,2 C 14,4 C 0,0 UV-I 0,0 C 62 % 90 % 0 % 1005,9 hPa 0,0 l/m 6,4 km/h (2 Bft) 0 min 0 min 9,6 km/h (2 Bft)
17.10.2012 22:28 18,2 C 14,4 C 0,0 UV-I 0,0 C 61 % 90 % 0 % 1005,9 hPa 0,0 l/m 6,0 km/h (2 Bft) 0 min 0 min 12,0 km/h (2 Bft)
17.10.2012 22:30 18,2 C 14,4 C 0,0 UV-I 0,0 C 62 % 90 % 0 % 1005,9 hPa 0,0 l/m 5,6 km/h (1 Bft) 0 min 0 min 10,0 km/h (2 Bft)
17.10.2012 22:32 18,2 C 14,4 C 0,0 UV-I 0,0 C 62 % 90 % 0 % 1005,9 hPa 0,0 l/m 5,6 km/h (1 Bft) 0 min 0 min 14,1 km/h (3 Bft)
17.10.2012 22:34 18,2 C 14,5 C 0,0 UV-I 0,0 C 62 % 90 % 0 % 1005,9 hPa 0,0 l/m 5,6 km/h (1 Bft) 0 min 0 min 6,4 km/h (2 Bft)
17.10.2012 22:36 18,2 C 14,5 C 0,0 UV-I 0,0 C 62 % 90 % 0 % 1005,9 hPa 0,0 l/m 5,6 km/h (1 Bft) 0 min 0 min 5,6 km/h (1 Bft)
17.10.2012 22:38 18,2 C 14,5 C 0,0 UV-I 0,0 C 62 % 90 % 0 % 1005,9 hPa 0,0 l/m 5,6 km/h (1 Bft) 0 min 0 min 9,6 km/h (2 Bft)
17.10.2012 22:40 18,2 C 14,5 C 0,0 UV-I 0,0 C 62 % 90 % 0 % 1005,9 hPa 0,0 l/m 6,8 km/h (2 Bft) 0 min 0 min 15,3 km/h (3 Bft)
17.10.2012 22:42 18,2 C 14,4 C 0,0 UV-I 0,0 C 62 % 90 % 0 % 1005,9 hPa 0,0 l/m 6,8 km/h (2 Bft) 0 min 0 min 9,6 km/h (2 Bft)
17.10.2012 22:44 18,2 C 14,4 C 0,0 UV-I 0,0 C 62 % 90 % 0 % 1005,9 hPa 0,0 l/m 6,8 km/h (2 Bft) 0 min 0 min 9,6 km/h (2 Bft)
17.10.2012 22:46 18,2 C 14,4 C 0,0 UV-I 0,0 C 62 % 90 % 0 % 1006,1 hPa 0,0 l/m 7,6 km/h (2 Bft) 0 min 0 min 17,3 km/h (3 Bft)
17.10.2012 22:48 18,2 C 14,4 C 0,0 UV-I 0,0 C 62 % 90 % 0 % 1006,1 hPa 0,0 l/m 7,6 km/h (2 Bft) 0 min 0 min 8,8 km/h (2 Bft)
17.10.2012 22:50 18,2 C 14,4 C 0,0 UV-I 0,0 C 62 % 90 % 0 % 1006,1 hPa 0,0 l/m 7,2 km/h (2 Bft) 0 min 0 min 4,8 km/h (1 Bft)
17.10.2012 22:52 18,2 C 14,4 C 0,0 UV-I 0,0 C 62 % 90 % 0 % 1006,1 hPa 0,0 l/m 7,2 km/h (2 Bft) 0 min 0 min 12,4 km/h (3 Bft)
17.10.2012 22:54 18,2 C 14,5 C 0,0 UV-I 0,0 C 62 % 90 % 0 % 1006,1 hPa 0,0 l/m 6,8 km/h (2 Bft) 0 min 0 min 7,6 km/h (2 Bft)
17.10.2012 22:56 18,2 C 14,5 C 0,0 UV-I 0,0 C 62 % 90 % 0 % 1006,1 hPa 0,0 l/m 6,8 km/h (2 Bft) 0 min 0 min 6,8 km/h (2 Bft)
17.10.2012 22:58 18,2 C 14,5 C 0,0 UV-I 0,0 C 62 % 90 % 0 % 1006,1 hPa 0,0 l/m 6,4 km/h (2 Bft) 0 min 0 min 9,2 km/h (2 Bft)
17.10.2012 23:00 18,2 C 14,5 C 0,0 UV-I 0,0 C 62 % 90 % 0 % 1006,1 hPa 0,0 l/m 6,8 km/h (2 Bft) 0 min 0 min 10,4 km/h (2 Bft)
17.10.2012 23:02 18,2 C 14,5 C 0,0 UV-I 0,0 C 62 % 90 % 0 % 1006,1 hPa 0,0 l/m 6,8 km/h (2 Bft) 0 min 0 min 9,6 km/h (2 Bft)
17.10.2012 23:04 18,2 C 14,5 C 0,0 UV-I 0,0 C 62 % 90 % 0 % 1006,1 hPa 0,0 l/m 6,8 km/h (2 Bft) 0 min 0 min 4,4 km/h (1 Bft)
17.10.2012 23:06 18,2 C 14,5 C 0,0 UV-I 0,0 C 62 % 90 % 0 % 1006,4 hPa 0,0 l/m 6,4 km/h (2 Bft) 0 min 0 min 4,4 km/h (1 Bft)
17.10.2012 23:08 18,2 C 14,6 C 0,0 UV-I 0,0 C 62 % 90 % 0 % 1006,4 hPa 0,0 l/m 6,0 km/h (2 Bft) 0 min 0 min 8,0 km/h (2 Bft)
17.10.2012 23:10 18,2 C 14,6 C 0,0 UV-I 0,0 C 62 % 90 % 0 % 1006,4 hPa 0,0 l/m 6,4 km/h (2 Bft) 0 min 0 min 12,4 km/h (3 Bft)
17.10.2012 23:12 18,2 C 14,6 C 0,0 UV-I 0,0 C 62 % 90 % 0 % 1006,4 hPa 0,0 l/m 6,0 km/h (2 Bft) 0 min 0 min 8,0 km/h (2 Bft)
17.10.2012 23:14 18,2 C 14,6 C 0,0 UV-I 0,0 C 62 % 90 % 0 % 1006,4 hPa 0,0 l/m 5,6 km/h (1 Bft) 0 min 0 min 15,7 km/h (3 Bft)
17.10.2012 23:16 18,2 C 14,7 C 0,0 UV-I 0,0 C 62 % 90 % 0 % 1006,4 hPa 0,0 l/m 6,0 km/h (2 Bft) 0 min 0 min 8,0 km/h (2 Bft)
17.10.2012 23:18 18,2 C 14,7 C 0,0 UV-I 0,0 C 62 % 90 % 0 % 1006,4 hPa 0,0 l/m 6,8 km/h (2 Bft) 0 min 0 min 8,4 km/h (2 Bft)
17.10.2012 23:20 18,2 C 14,7 C 0,0 UV-I 0,0 C 62 % 90 % 0 % 1006,4 hPa 0,0 l/m 6,8 km/h (2 Bft) 0 min 2 min 5,6 km/h (1 Bft)
17.10.2012 23:22 18,2 C 14,7 C 0,0 UV-I 0,0 C 62 % 90 % 0 % 1006,4 hPa 0,1 l/m 6,4 km/h (2 Bft) 0 min 2 min 7,2 km/h (2 Bft)
17.10.2012 23:24 18,2 C 14,7 C 0,0 UV-I 0,0 C 62 % 90 % 0 % 1006,4 hPa 0,0 l/m 6,4 km/h (2 Bft) 0 min 0 min 7,2 km/h (2 Bft)
17.10.2012 23:26 18,2 C 14,7 C 0,0 UV-I 0,0 C 62 % 90 % 0 % 1006,6 hPa 0,0 l/m 5,2 km/h (1 Bft) 0 min 0 min 6,8 km/h (2 Bft)
17.10.2012 23:28 18,2 C 14,6 C 0,0 UV-I 0,0 C 62 % 90 % 0 % 1006,6 hPa 0,0 l/m 4,8 km/h (1 Bft) 0 min 0 min 6,8 km/h (2 Bft)
17.10.2012 23:30 18,2 C 14,5 C 0,0 UV-I 0,0 C 62 % 90 % 0 % 1006,6 hPa 0,0 l/m 4,8 km/h (1 Bft) 0 min 0 min 8,0 km/h (2 Bft)
17.10.2012 23:32 18,2 C 14,5 C 0,0 UV-I 0,0 C 62 % 90 % 0 % 1006,6 hPa 0,0 l/m 4,4 km/h (1 Bft) 0 min 0 min 0,0 km/h (0 Bft)
17.10.2012 23:34 18,2 C 14,5 C 0,0 UV-I 0,0 C 62 % 90 % 0 % 1006,6 hPa 0,0 l/m 4,4 km/h (1 Bft) 0 min 0 min 4,4 km/h (1 Bft)
17.10.2012 23:36 18,2 C 14,4 C 0,0 UV-I 0,0 C 62 % 90 % 0 % 1006,6 hPa 0,0 l/m 4,4 km/h (1 Bft) 0 min 0 min 4,0 km/h (1 Bft)
17.10.2012 23:38 18,2 C 14,4 C 0,0 UV-I 0,0 C 62 % 90 % 0 % 1006,6 hPa 0,0 l/m 3,6 km/h (1 Bft) 0 min 0 min 0,0 km/h (0 Bft)
17.10.2012 23:40 18,2 C 14,5 C 0,0 UV-I 0,0 C 62 % 90 % 0 % 1006,6 hPa 0,0 l/m 2,8 km/h (1 Bft) 0 min 0 min 0,0 km/h (0 Bft)
17.10.2012 23:42 18,2 C 14,5 C 0,0 UV-I 0,0 C 62 % 90 % 0 % 1006,6 hPa 0,0 l/m 2,0 km/h (1 Bft) 0 min 0 min 4,0 km/h (1 Bft)
17.10.2012 23:44 18,2 C 14,4 C 0,0 UV-I 0,0 C 62 % 90 % 0 % 1006,6 hPa 0,0 l/m 2,0 km/h (1 Bft) 0 min 0 min 5,6 km/h (1 Bft)
17.10.2012 23:46 18,2 C 14,3 C 0,0 UV-I 0,0 C 62 % 91 % 0 % 1006,4 hPa 0,0 l/m 2,0 km/h (1 Bft) 0 min 0 min 0,0 km/h (0 Bft)
17.10.2012 23:48 18,2 C 14,3 C 0,0 UV-I 0,0 C 62 % 91 % 0 % 1006,4 hPa 0,0 l/m 2,0 km/h (1 Bft) 0 min 0 min 8,4 km/h (2 Bft)
17.10.2012 23:50 18,2 C 14,3 C 0,0 UV-I 0,0 C 62 % 91 % 0 % 1006,4 hPa 0,0 l/m 2,8 km/h (1 Bft) 0 min 0 min 7,6 km/h (2 Bft)
17.10.2012 23:52 18,2 C 14,3 C 0,0 UV-I 0,0 C 62 % 91 % 0 % 1006,4 hPa 0,0 l/m 3,6 km/h (1 Bft) 0 min 0 min 11,2 km/h (2 Bft)
17.10.2012 23:54 18,2 C 14,3 C 0,0 UV-I 0,0 C 62 % 91 % 0 % 1006,4 hPa 0,0 l/m 3,6 km/h (1 Bft) 0 min 0 min 4,8 km/h (1 Bft)
17.10.2012 23:56 18,2 C 14,3 C 0,0 UV-I 0,0 C 62 % 91 % 0 % 1006,4 hPa 0,0 l/m 3,2 km/h (1 Bft) 0 min 0 min 4,0 km/h (1 Bft)
17.10.2012 23:58 18,2 C 14,3 C 0,0 UV-I 0,0 C 62 % 91 % 0 % 1006,4 hPa 0,0 l/m 2,8 km/h (1 Bft) 0 min 0 min 0,0 km/h (0 Bft)
_ Min-Zeit 07:44 05:20 00:00 00:00 03:52 15:26 00:00 12:26 - 00:42 - - 00:06
Minimum _ 16,9 C 6,2 C 0,0 UV-I 0,0 C 54 % 88 % 0 % 1005,7 hPa - 0,0 km/h (0 Bft) - - 0,0 km/h (0 Bft)
_ Max-Zeit 16:38 18:56 12:40 13:06 22:02 11:10 13:06 00:26 10:30 10:18 00:00 08:06 12:30
Maximum _ 18,2 C 14,9 C 0,2 UV-I 1,5 C 62 % 98 % 43 % 1010,1 hPa 0,2 l/m 14,9 km/h
O (3 Bft)
0 min 2 min 37,3 km/h
NO (5 Bft)
Durchschnitt _ 17,6 C 11,0 C 0,0 UV-I 0,1 C 57 % 93 % 4 % 1007,2 hPa #1,9 l/m 6,2 km/h (2 Bft) #0 min. #2:02 h 8,8 km/h (2 Bft)
© 2012 W. Hausmann